Wetterdaten: Freitag, 18.06.2010
Datum Zeit Temp. Innen Temp. Aussen UV X Diff Temp. Feuchte Inne Feuchte Auss Sonnenschein Luftdruck Regen ab 0,1 Wind Sonnenschein Windben
18.06.2010 00:00 22,8 C 16,3 C 0,1 UV-I 0,0 C 45 % 67 % 0 % 1018,2 hPa 0,0 l/m 3,2 km/h (1 Bft) 0 min 4,2 km/h (1 Bft)
18.06.2010 00:02 22,8 C 16,3 C 0,1 UV-I 0,0 C 45 % 68 % 0 % 1018,2 hPa 0,0 l/m 4,0 km/h (1 Bft) 0 min 0,0 km/h (0 Bft)
18.06.2010 00:04 22,8 C 16,3 C 0,1 UV-I 0,0 C 45 % 68 % 0 % 1018,2 hPa 0,0 l/m 4,0 km/h (1 Bft) 0 min 6,4 km/h (2 Bft)
18.06.2010 00:06 22,8 C 16,4 C 0,1 UV-I 0,0 C 45 % 70 % 0 % 1018,2 hPa 0,0 l/m 6,0 km/h (2 Bft) 0 min 5,5 km/h (1 Bft)
18.06.2010 00:08 22,8 C 16,5 C 0,1 UV-I 0,0 C 45 % 71 % 0 % 1018,2 hPa 0,0 l/m 6,8 km/h (2 Bft) 0 min 7,4 km/h (2 Bft)
18.06.2010 00:12 22,8 C 16,4 C 0,1 UV-I 0,0 C 45 % 71 % 0 % 1018,4 hPa 0,0 l/m 6,0 km/h (2 Bft) 0 min 6,1 km/h (2 Bft)
18.06.2010 00:14 22,8 C 16,5 C 0,1 UV-I 0,0 C 45 % 71 % 0 % 1018,4 hPa 0,0 l/m 7,2 km/h (2 Bft) 0 min 13,2 km/h (3 Bft)
18.06.2010 00:16 22,8 C 16,5 C 0,1 UV-I 0,0 C 45 % 72 % 0 % 1018,4 hPa 0,0 l/m 6,8 km/h (2 Bft) 0 min 5,1 km/h (1 Bft)
18.06.2010 00:18 22,8 C 16,5 C 0,1 UV-I 0,0 C 45 % 72 % 0 % 1018,4 hPa 0,0 l/m 7,2 km/h (2 Bft) 0 min 12,6 km/h (3 Bft)
18.06.2010 00:20 22,8 C 16,5 C 0,1 UV-I 0,0 C 45 % 72 % 0 % 1018,4 hPa 0,0 l/m 7,2 km/h (2 Bft) 0 min 13,2 km/h (3 Bft)
18.06.2010 00:22 22,8 C 16,5 C 0,1 UV-I 0,0 C 45 % 72 % 0 % 1018,4 hPa 0,0 l/m 7,6 km/h (2 Bft) 0 min 7,7 km/h (2 Bft)
18.06.2010 00:24 22,7 C 16,6 C 0,1 UV-I 0,0 C 45 % 72 % 0 % 1018,4 hPa 0,0 l/m 8,4 km/h (2 Bft) 0 min 9,3 km/h (2 Bft)
18.06.2010 00:26 22,8 C 16,5 C 0,1 UV-I 0,0 C 45 % 73 % 0 % 1018,4 hPa 0,0 l/m 8,8 km/h (2 Bft) 0 min 12,2 km/h (2 Bft)
18.06.2010 00:28 22,7 C 16,7 C 0,1 UV-I 0,0 C 45 % 73 % 0 % 1018,4 hPa 0,0 l/m 8,8 km/h (2 Bft) 0 min 10,0 km/h (2 Bft)
18.06.2010 00:30 22,7 C 16,7 C 0,1 UV-I 0,0 C 45 % 73 % 0 % 1018,4 hPa 0,0 l/m 8,8 km/h (2 Bft) 0 min 10,0 km/h (2 Bft)
18.06.2010 00:32 22,7 C 16,7 C 0,1 UV-I 0,0 C 46 % 73 % 0 % 1018,1 hPa 0,0 l/m 10,4 km/h (2 Bft) 0 min 12,9 km/h (3 Bft)
18.06.2010 00:34 22,7 C 16,7 C 0,1 UV-I 0,0 C 46 % 73 % 0 % 1018,1 hPa 0,0 l/m 10,4 km/h (2 Bft) 0 min 8,0 km/h (2 Bft)
18.06.2010 00:36 22,7 C 16,7 C 0,1 UV-I 0,0 C 46 % 73 % 0 % 1018,1 hPa 0,0 l/m 10,4 km/h (2 Bft) 0 min 11,9 km/h (2 Bft)
18.06.2010 00:38 22,7 C 16,7 C 0,1 UV-I 0,0 C 46 % 72 % 0 % 1018,1 hPa 0,0 l/m 10,0 km/h (2 Bft) 0 min 11,9 km/h (2 Bft)
18.06.2010 00:42 22,7 C 16,6 C 0,1 UV-I 0,0 C 46 % 72 % 0 % 1018,1 hPa 0,0 l/m 11,2 km/h (2 Bft) 0 min 21,2 km/h (4 Bft)
18.06.2010 00:44 22,6 C 16,6 C 0,1 UV-I 0,0 C 46 % 72 % 0 % 1018,1 hPa 0,0 l/m 10,0 km/h (2 Bft) 0 min 9,3 km/h (2 Bft)
18.06.2010 00:46 22,6 C 16,6 C 0,1 UV-I 0,0 C 46 % 72 % 0 % 1018,1 hPa 0,0 l/m 10,0 km/h (2 Bft) 0 min 8,0 km/h (2 Bft)
18.06.2010 00:50 22,6 C 16,6 C 0,1 UV-I 0,0 C 46 % 72 % 0 % 1018,1 hPa 0,0 l/m 9,6 km/h (2 Bft) 0 min 7,4 km/h (2 Bft)
18.06.2010 00:52 22,6 C 16,7 C 0,1 UV-I 0,0 C 46 % 72 % 0 % 1018,1 hPa 0,0 l/m 7,2 km/h (2 Bft) 0 min 5,5 km/h (1 Bft)
18.06.2010 00:54 22,6 C 16,6 C 0,1 UV-I 0,0 C 46 % 72 % 0 % 1018,1 hPa 0,0 l/m 7,6 km/h (2 Bft) 0 min 15,8 km/h (3 Bft)
18.06.2010 00:56 22,6 C 16,5 C 0,1 UV-I 0,0 C 46 % 72 % 0 % 1018,1 hPa 0,0 l/m 7,6 km/h (2 Bft) 0 min 4,2 km/h (1 Bft)
18.06.2010 00:58 22,6 C 16,5 C 0,1 UV-I 0,0 C 46 % 72 % 0 % 1018,1 hPa 0,0 l/m 7,2 km/h (2 Bft) 0 min 4,8 km/h (1 Bft)
18.06.2010 01:00 22,6 C 16,5 C 0,1 UV-I 0,0 C 46 % 72 % 0 % 1018,1 hPa 0,0 l/m 7,2 km/h (2 Bft) 0 min 6,1 km/h (2 Bft)
18.06.2010 01:02 22,6 C 16,5 C 0,1 UV-I 0,0 C 46 % 72 % 0 % 1018,1 hPa 0,0 l/m 7,2 km/h (2 Bft) 0 min 7,7 km/h (2 Bft)
18.06.2010 01:04 22,6 C 16,4 C 0,1 UV-I 0,0 C 46 % 72 % 0 % 1018,1 hPa 0,0 l/m 7,2 km/h (2 Bft) 0 min 11,3 km/h (2 Bft)
18.06.2010 01:12 22,6 C 16,4 C 0,1 UV-I 0,0 C 46 % 72 % 0 % 1018,2 hPa 0,0 l/m 8,0 km/h (2 Bft) 0 min 11,9 km/h (2 Bft)
18.06.2010 01:14 22,6 C 16,4 C 0,1 UV-I 0,0 C 46 % 72 % 0 % 1018,2 hPa 0,0 l/m 7,6 km/h (2 Bft) 0 min 10,3 km/h (2 Bft)
18.06.2010 01:18 22,5 C 16,3 C 0,1 UV-I 0,0 C 46 % 73 % 0 % 1018,2 hPa 0,0 l/m 6,8 km/h (2 Bft) 0 min 6,1 km/h (2 Bft)
18.06.2010 01:20 22,5 C 16,3 C 0,1 UV-I 0,0 C 47 % 73 % 0 % 1018,2 hPa 0,0 l/m 6,4 km/h (2 Bft) 0 min 5,8 km/h (2 Bft)
18.06.2010 01:22 22,5 C 16,3 C 0,1 UV-I 0,0 C 47 % 73 % 0 % 1018,2 hPa 0,0 l/m 6,8 km/h (2 Bft) 0 min 15,8 km/h (3 Bft)
18.06.2010 01:24 22,5 C 16,3 C 0,1 UV-I 0,0 C 47 % 73 % 0 % 1018,2 hPa 0,0 l/m 7,6 km/h (2 Bft) 0 min 4,2 km/h (1 Bft)
18.06.2010 01:26 22,5 C 16,2 C 0,1 UV-I 0,0 C 47 % 73 % 0 % 1018,2 hPa 0,0 l/m 7,6 km/h (2 Bft) 0 min 6,8 km/h (2 Bft)
18.06.2010 01:28 22,5 C 16,2 C 0,1 UV-I 0,0 C 47 % 73 % 0 % 1018,2 hPa 0,0 l/m 8,0 km/h (2 Bft) 0 min 10,0 km/h (2 Bft)
18.06.2010 01:30 22,5 C 16,3 C 0,1 UV-I 0,0 C 47 % 73 % 0 % 1018,2 hPa 0,0 l/m 8,0 km/h (2 Bft) 0 min 10,0 km/h (2 Bft)
18.06.2010 01:32 22,5 C 16,1 C 0,1 UV-I 0,0 C 47 % 73 % 0 % 1018,2 hPa 0,0 l/m 8,8 km/h (2 Bft) 0 min 11,6 km/h (2 Bft)
18.06.2010 01:34 22,5 C 16,1 C 0,1 UV-I 0,0 C 47 % 73 % 0 % 1018,2 hPa 0,0 l/m 8,4 km/h (2 Bft) 0 min 8,0 km/h (2 Bft)
18.06.2010 01:36 22,5 C 16,1 C 0,1 UV-I 0,0 C 47 % 73 % 0 % 1018,2 hPa 0,0 l/m 8,0 km/h (2 Bft) 0 min 7,1 km/h (2 Bft)
18.06.2010 01:38 22,5 C 16,1 C 0,1 UV-I 0,0 C 47 % 73 % 0 % 1018,2 hPa 0,0 l/m 8,0 km/h (2 Bft) 0 min 7,4 km/h (2 Bft)
18.06.2010 01:40 22,5 C 16,0 C 0,1 UV-I 0,0 C 47 % 73 % 0 % 1018,2 hPa 0,0 l/m 7,6 km/h (2 Bft) 0 min 4,2 km/h (1 Bft)
18.06.2010 01:42 22,4 C 16,1 C 0,1 UV-I 0,0 C 47 % 73 % 0 % 1018,2 hPa 0,0 l/m 7,6 km/h (2 Bft) 0 min 7,1 km/h (2 Bft)
18.06.2010 01:44 22,4 C 16,0 C 0,1 UV-I 0,0 C 47 % 73 % 0 % 1018,2 hPa 0,0 l/m 6,8 km/h (2 Bft) 0 min 10,6 km/h (2 Bft)
18.06.2010 01:46 22,4 C 15,9 C 0,1 UV-I 0,0 C 47 % 73 % 0 % 1018,2 hPa 0,0 l/m 6,4 km/h (2 Bft) 0 min 3,2 km/h (1 Bft)
18.06.2010 01:48 22,4 C 15,9 C 0,1 UV-I 0,0 C 47 % 73 % 0 % 1018,2 hPa 0,0 l/m 6,4 km/h (2 Bft) 0 min 4,8 km/h (1 Bft)
18.06.2010 01:50 22,4 C 15,9 C 0,1 UV-I 0,0 C 47 % 74 % 0 % 1018,2 hPa 0,0 l/m 6,4 km/h (2 Bft) 0 min 4,8 km/h (1 Bft)
18.06.2010 01:52 22,4 C 15,9 C 0,1 UV-I 0,0 C 47 % 74 % 0 % 1017,8 hPa 0,0 l/m 6,8 km/h (2 Bft) 0 min 7,7 km/h (2 Bft)
18.06.2010 01:54 22,4 C 15,8 C 0,1 UV-I 0,0 C 47 % 74 % 0 % 1017,8 hPa 0,0 l/m 6,8 km/h (2 Bft) 0 min 7,1 km/h (2 Bft)
18.06.2010 01:56 22,4 C 15,7 C 0,1 UV-I 0,0 C 47 % 74 % 0 % 1017,8 hPa 0,0 l/m 6,4 km/h (2 Bft) 0 min 4,2 km/h (1 Bft)
18.06.2010 01:58 22,4 C 15,7 C 0,1 UV-I 0,0 C 47 % 74 % 0 % 1017,8 hPa 0,0 l/m 6,8 km/h (2 Bft) 0 min 5,8 km/h (2 Bft)
18.06.2010 02:02 22,4 C 15,7 C 0,1 UV-I 0,0 C 47 % 74 % 0 % 1017,8 hPa 0,0 l/m 6,0 km/h (2 Bft) 0 min 6,1 km/h (2 Bft)
18.06.2010 02:04 22,4 C 15,6 C 0,1 UV-I 0,0 C 47 % 74 % 0 % 1017,8 hPa 0,0 l/m 6,4 km/h (2 Bft) 0 min 12,9 km/h (3 Bft)
18.06.2010 02:06 22,4 C 15,6 C 0,1 UV-I 0,0 C 47 % 74 % 0 % 1017,8 hPa 0,0 l/m 6,0 km/h (2 Bft) 0 min 8,0 km/h (2 Bft)
18.06.2010 02:08 22,4 C 15,5 C 0,1 UV-I 0,0 C 47 % 74 % 0 % 1017,8 hPa 0,0 l/m 6,4 km/h (2 Bft) 0 min 5,8 km/h (2 Bft)
18.06.2010 02:10 22,4 C 15,4 C 0,1 UV-I 0,0 C 47 % 74 % 0 % 1017,8 hPa 0,0 l/m 6,4 km/h (2 Bft) 0 min 5,8 km/h (2 Bft)
18.06.2010 02:12 22,4 C 15,5 C 0,1 UV-I 0,0 C 47 % 74 % 0 % 1017,6 hPa 0,0 l/m 6,8 km/h (2 Bft) 0 min 8,7 km/h (2 Bft)
18.06.2010 02:14 22,4 C 15,4 C 0,1 UV-I 0,0 C 47 % 74 % 0 % 1017,6 hPa 0,0 l/m 6,8 km/h (2 Bft) 0 min 6,4 km/h (2 Bft)
18.06.2010 02:16 22,4 C 15,3 C 0,1 UV-I 0,0 C 47 % 75 % 0 % 1017,6 hPa 0,0 l/m 6,0 km/h (2 Bft) 0 min 3,2 km/h (1 Bft)
18.06.2010 02:18 22,4 C 15,2 C 0,1 UV-I 0,0 C 47 % 75 % 0 % 1017,6 hPa 0,0 l/m 5,6 km/h (1 Bft) 0 min 3,2 km/h (1 Bft)
18.06.2010 02:20 22,4 C 15,2 C 0,1 UV-I 0,0 C 47 % 75 % 0 % 1017,6 hPa 0,0 l/m 5,6 km/h (1 Bft) 0 min 5,1 km/h (1 Bft)
18.06.2010 02:24 22,4 C 15,1 C 0,1 UV-I 0,0 C 47 % 75 % 0 % 1017,6 hPa 0,0 l/m 5,2 km/h (1 Bft) 0 min 4,5 km/h (1 Bft)
18.06.2010 02:26 22,4 C 15,1 C 0,1 UV-I 0,0 C 47 % 76 % 0 % 1017,6 hPa 0,0 l/m 4,0 km/h (1 Bft) 0 min 0,0 km/h (0 Bft)
18.06.2010 02:28 22,4 C 15,0 C 0,1 UV-I 0,0 C 47 % 75 % 0 % 1017,6 hPa 0,0 l/m 3,6 km/h (1 Bft) 0 min 5,1 km/h (1 Bft)
18.06.2010 02:30 22,4 C 14,9 C 0,1 UV-I 0,0 C 47 % 75 % 0 % 1017,6 hPa 0,0 l/m 3,6 km/h (1 Bft) 0 min 5,1 km/h (1 Bft)
18.06.2010 02:32 22,2 C 14,8 C 0,0 UV-I 0,0 C 47 % 75 % 0 % 1017,8 hPa 0,0 l/m 4,0 km/h (1 Bft) 0 min 6,1 km/h (2 Bft)
18.06.2010 02:34 22,2 C 14,8 C 0,0 UV-I 0,0 C 48 % 75 % 0 % 1017,8 hPa 0,0 l/m 3,2 km/h (1 Bft) 0 min 5,1 km/h (1 Bft)
18.06.2010 02:36 22,2 C 14,8 C 0,0 UV-I 0,0 C 47 % 76 % 0 % 1017,8 hPa 0,0 l/m 3,6 km/h (1 Bft) 0 min 6,8 km/h (2 Bft)
18.06.2010 02:38 22,2 C 14,7 C 0,1 UV-I 0,0 C 47 % 76 % 0 % 1017,8 hPa 0,0 l/m 4,0 km/h (1 Bft) 0 min 5,1 km/h (1 Bft)
18.06.2010 02:40 22,3 C 14,7 C 0,1 UV-I 0,0 C 48 % 76 % 0 % 1017,8 hPa 0,0 l/m 3,6 km/h (1 Bft) 0 min 0,0 km/h (0 Bft)
18.06.2010 02:42 22,3 C 14,6 C 0,1 UV-I 0,0 C 48 % 76 % 0 % 1017,8 hPa 0,0 l/m 3,6 km/h (1 Bft) 0 min 7,7 km/h (2 Bft)
18.06.2010 02:44 22,3 C 14,7 C 0,1 UV-I 0,0 C 48 % 76 % 0 % 1017,8 hPa 0,0 l/m 4,0 km/h (1 Bft) 0 min 3,5 km/h (1 Bft)
18.06.2010 02:46 22,3 C 14,5 C 0,1 UV-I 0,0 C 48 % 76 % 0 % 1017,8 hPa 0,0 l/m 3,2 km/h (1 Bft) 0 min 3,2 km/h (1 Bft)
18.06.2010 02:48 22,3 C 14,4 C 0,1 UV-I 0,0 C 48 % 76 % 0 % 1017,8 hPa 0,0 l/m 2,8 km/h (1 Bft) 0 min 0,0 km/h (0 Bft)
18.06.2010 02:50 22,3 C 14,4 C 0,1 UV-I 0,0 C 48 % 77 % 0 % 1017,8 hPa 0,0 l/m 2,8 km/h (1 Bft) 0 min 0,0 km/h (0 Bft)
18.06.2010 02:52 22,3 C 14,4 C 0,1 UV-I 0,0 C 48 % 77 % 0 % 1017,8 hPa 0,0 l/m 2,4 km/h (1 Bft) 0 min 0,0 km/h (0 Bft)
18.06.2010 02:54 22,2 C 14,3 C 0,1 UV-I 0,0 C 48 % 77 % 0 % 1017,8 hPa 0,0 l/m 1,2 km/h (1 Bft) 0 min 0,0 km/h (0 Bft)
18.06.2010 02:58 22,3 C 14,3 C 0,1 UV-I 0,0 C 48 % 77 % 0 % 1017,8 hPa 0,0 l/m 0,8 km/h (0 Bft) 0 min 3,2 km/h (1 Bft)
18.06.2010 03:00 22,2 C 14,3 C 0,1 UV-I 0,0 C 48 % 77 % 0 % 1017,8 hPa 0,0 l/m 0,8 km/h (0 Bft) 0 min 0,0 km/h (0 Bft)
18.06.2010 03:02 22,2 C 14,2 C 0,1 UV-I 0,0 C 48 % 77 % 0 % 1017,8 hPa 0,0 l/m 0,8 km/h (0 Bft) 0 min 0,0 km/h (0 Bft)
18.06.2010 03:04 22,2 C 14,2 C 0,1 UV-I 0,0 C 48 % 77 % 0 % 1017,8 hPa 0,0 l/m 0,8 km/h (0 Bft) 0 min 4,5 km/h (1 Bft)
18.06.2010 03:06 22,2 C 14,1 C 0,1 UV-I 0,0 C 48 % 78 % 0 % 1017,8 hPa 0,0 l/m 2,0 km/h (1 Bft) 0 min 4,8 km/h (1 Bft)
18.06.2010 03:08 22,2 C 14,0 C 0,1 UV-I 0,0 C 48 % 78 % 0 % 1017,8 hPa 0,0 l/m 2,0 km/h (1 Bft) 0 min 3,5 km/h (1 Bft)
18.06.2010 03:10 22,2 C 14,1 C 0,1 UV-I 0,0 C 48 % 78 % 0 % 1017,8 hPa 0,0 l/m 2,0 km/h (1 Bft) 0 min 3,5 km/h (1 Bft)
18.06.2010 03:12 22,2 C 14,0 C 0,1 UV-I 0,0 C 48 % 78 % 0 % 1017,4 hPa 0,0 l/m 3,2 km/h (1 Bft) 0 min 5,8 km/h (2 Bft)
18.06.2010 03:14 22,2 C 13,9 C 0,1 UV-I 0,0 C 48 % 78 % 0 % 1017,4 hPa 0,0 l/m 3,2 km/h (1 Bft) 0 min 3,5 km/h (1 Bft)
18.06.2010 03:16 22,2 C 13,8 C 0,1 UV-I 0,0 C 48 % 78 % 0 % 1017,4 hPa 0,0 l/m 3,6 km/h (1 Bft) 0 min 3,5 km/h (1 Bft)
18.06.2010 03:18 22,2 C 13,9 C 0,1 UV-I 0,0 C 48 % 79 % 0 % 1017,4 hPa 0,0 l/m 3,6 km/h (1 Bft) 0 min 4,2 km/h (1 Bft)
18.06.2010 03:20 22,2 C 13,8 C 0,1 UV-I 0,0 C 48 % 79 % 0 % 1017,4 hPa 0,0 l/m 4,0 km/h (1 Bft) 0 min 3,5 km/h (1 Bft)
18.06.2010 03:22 22,2 C 13,7 C 0,1 UV-I 0,0 C 48 % 78 % 0 % 1017,4 hPa 0,0 l/m 4,0 km/h (1 Bft) 0 min 6,4 km/h (2 Bft)
18.06.2010 03:24 22,2 C 13,6 C 0,1 UV-I 0,0 C 48 % 79 % 0 % 1017,4 hPa 0,0 l/m 4,0 km/h (1 Bft) 0 min 4,8 km/h (1 Bft)
18.06.2010 03:26 22,2 C 13,7 C 0,1 UV-I 0,0 C 48 % 79 % 0 % 1017,4 hPa 0,0 l/m 3,6 km/h (1 Bft) 0 min 6,8 km/h (2 Bft)
18.06.2010 03:28 22,2 C 13,6 C 0,1 UV-I 0,0 C 48 % 79 % 0 % 1017,4 hPa 0,0 l/m 3,6 km/h (1 Bft) 0 min 0,0 km/h (0 Bft)
18.06.2010 03:30 22,2 C 13,5 C 0,1 UV-I 0,0 C 48 % 79 % 0 % 1017,4 hPa 0,0 l/m 3,6 km/h (1 Bft) 0 min 0,0 km/h (0 Bft)
18.06.2010 03:32 22,2 C 13,5 C 0,1 UV-I 0,0 C 48 % 79 % 0 % 1017,5 hPa 0,0 l/m 4,4 km/h (1 Bft) 0 min 6,1 km/h (2 Bft)
18.06.2010 03:34 22,2 C 13,5 C 0,1 UV-I 0,0 C 48 % 80 % 0 % 1017,5 hPa 0,0 l/m 4,0 km/h (1 Bft) 0 min 6,8 km/h (2 Bft)
18.06.2010 03:36 22,1 C 13,5 C 0,1 UV-I 0,0 C 48 % 80 % 0 % 1017,5 hPa 0,0 l/m 4,8 km/h (1 Bft) 0 min 5,5 km/h (1 Bft)
18.06.2010 03:38 22,1 C 13,4 C 0,1 UV-I 0,0 C 48 % 80 % 0 % 1017,5 hPa 0,0 l/m 4,0 km/h (1 Bft) 0 min 4,8 km/h (1 Bft)
18.06.2010 03:40 22,1 C 13,3 C 0,1 UV-I 0,0 C 48 % 80 % 0 % 1017,5 hPa 0,0 l/m 4,8 km/h (1 Bft) 0 min 6,8 km/h (2 Bft)
18.06.2010 03:42 22,1 C 13,3 C 0,0 UV-I 0,0 C 48 % 80 % 0 % 1017,5 hPa 0,0 l/m 4,8 km/h (1 Bft) 0 min 11,3 km/h (2 Bft)
18.06.2010 03:44 22,1 C 13,3 C 0,0 UV-I 0,0 C 48 % 80 % 0 % 1017,5 hPa 0,0 l/m 4,8 km/h (1 Bft) 0 min 0,0 km/h (0 Bft)
18.06.2010 03:46 22,1 C 13,3 C 0,0 UV-I 0,0 C 48 % 80 % 0 % 1017,5 hPa 0,0 l/m 4,8 km/h (1 Bft) 0 min 5,5 km/h (1 Bft)
18.06.2010 03:48 22,1 C 13,2 C 0,0 UV-I 0,0 C 48 % 81 % 0 % 1017,5 hPa 0,0 l/m 4,8 km/h (1 Bft) 0 min 9,3 km/h (2 Bft)
18.06.2010 03:50 22,1 C 13,2 C 0,0 UV-I 0,0 C 48 % 81 % 0 % 1017,5 hPa 0,0 l/m 4,8 km/h (1 Bft) 0 min 9,3 km/h (2 Bft)
18.06.2010 03:54 22,1 C 13,1 C 0,1 UV-I 0,0 C 48 % 81 % 0 % 1017,2 hPa 0,0 l/m 5,6 km/h (1 Bft) 0 min 5,5 km/h (1 Bft)
18.06.2010 03:56 22,0 C 13,0 C 0,1 UV-I 0,0 C 48 % 81 % 0 % 1017,2 hPa 0,0 l/m 5,6 km/h (1 Bft) 0 min 8,0 km/h (2 Bft)
18.06.2010 03:58 22,0 C 13,1 C 0,1 UV-I 0,0 C 48 % 82 % 0 % 1017,2 hPa 0,0 l/m 5,2 km/h (1 Bft) 0 min 5,1 km/h (1 Bft)
18.06.2010 04:04 22,0 C 12,9 C 0,1 UV-I 0,0 C 48 % 82 % 0 % 1017,2 hPa 0,0 l/m 5,2 km/h (1 Bft) 0 min 8,0 km/h (2 Bft)
18.06.2010 04:06 22,0 C 12,9 C 0,1 UV-I 0,0 C 48 % 82 % 0 % 1017,2 hPa 0,0 l/m 6,4 km/h (2 Bft) 0 min 8,4 km/h (2 Bft)
18.06.2010 04:08 22,0 C 12,8 C 0,1 UV-I 0,0 C 48 % 82 % 0 % 1017,2 hPa 0,0 l/m 6,4 km/h (2 Bft) 0 min 5,1 km/h (1 Bft)
18.06.2010 04:13 22,0 C 12,8 C 0,1 UV-I 0,0 C 49 % 82 % 0 % 1017,1 hPa 0,0 l/m 5,6 km/h (1 Bft) 0 min 4,5 km/h (1 Bft)
18.06.2010 04:18 22,0 C 12,7 C 0,1 UV-I 0,0 C 49 % 83 % 0 % 1017,1 hPa 0,0 l/m 6,4 km/h (2 Bft) 0 min 7,1 km/h (2 Bft)
18.06.2010 04:20 22,0 C 12,7 C 0,1 UV-I 0,0 C 49 % 83 % 0 % 1017,1 hPa 0,0 l/m 6,4 km/h (2 Bft) 0 min 7,1 km/h (2 Bft)
18.06.2010 04:22 22,0 C 12,6 C 0,1 UV-I 0,0 C 49 % 83 % 0 % 1017,1 hPa 0,0 l/m 7,2 km/h (2 Bft) 0 min 10,3 km/h (2 Bft)
18.06.2010 04:24 22,0 C 12,7 C 0,1 UV-I 0,0 C 49 % 83 % 0 % 1017,1 hPa 0,0 l/m 6,8 km/h (2 Bft) 0 min 4,8 km/h (1 Bft)
18.06.2010 04:26 21,9 C 12,7 C 0,1 UV-I 0,0 C 49 % 83 % 0 % 1017,1 hPa 0,0 l/m 6,8 km/h (2 Bft) 0 min 12,2 km/h (2 Bft)
18.06.2010 04:28 21,9 C 12,7 C 0,1 UV-I 0,0 C 49 % 83 % 0 % 1017,1 hPa 0,0 l/m 6,8 km/h (2 Bft) 0 min 3,5 km/h (1 Bft)
18.06.2010 04:30 21,9 C 12,6 C 0,1 UV-I 0,0 C 49 % 83 % 0 % 1017,1 hPa 0,0 l/m 6,8 km/h (2 Bft) 0 min 3,5 km/h (1 Bft)
18.06.2010 04:32 21,9 C 12,5 C 0,1 UV-I 0,0 C 49 % 83 % 0 % 1017,0 hPa 0,0 l/m 7,2 km/h (2 Bft) 0 min 13,8 km/h (3 Bft)
18.06.2010 04:34 21,9 C 12,5 C 0,1 UV-I 0,0 C 49 % 83 % 0 % 1017,0 hPa 0,0 l/m 6,4 km/h (2 Bft) 0 min 6,1 km/h (2 Bft)
18.06.2010 04:36 21,8 C 12,5 C 0,1 UV-I 0,0 C 49 % 83 % 0 % 1017,0 hPa 0,0 l/m 6,4 km/h (2 Bft) 0 min 9,0 km/h (2 Bft)
18.06.2010 04:38 21,8 C 12,5 C 0,1 UV-I 0,0 C 49 % 83 % 0 % 1017,0 hPa 0,0 l/m 6,0 km/h (2 Bft) 0 min 7,7 km/h (2 Bft)
18.06.2010 04:40 21,8 C 12,4 C 0,1 UV-I 0,0 C 49 % 83 % 0 % 1017,0 hPa 0,0 l/m 5,6 km/h (1 Bft) 0 min 3,9 km/h (1 Bft)
18.06.2010 04:42 21,8 C 12,5 C 0,1 UV-I 0,0 C 49 % 83 % 0 % 1017,0 hPa 0,0 l/m 5,2 km/h (1 Bft) 0 min 6,1 km/h (2 Bft)
18.06.2010 04:44 21,8 C 12,4 C 0,1 UV-I 0,0 C 49 % 84 % 0 % 1017,0 hPa 0,0 l/m 4,4 km/h (1 Bft) 0 min 0,0 km/h (0 Bft)
18.06.2010 04:46 21,8 C 12,4 C 0,1 UV-I 0,0 C 49 % 84 % 0 % 1017,0 hPa 0,0 l/m 4,4 km/h (1 Bft) 0 min 4,8 km/h (1 Bft)
18.06.2010 04:48 21,8 C 12,3 C 0,1 UV-I 0,0 C 49 % 84 % 0 % 1017,0 hPa 0,0 l/m 4,4 km/h (1 Bft) 0 min 5,5 km/h (1 Bft)
18.06.2010 04:50 21,8 C 12,3 C 0,1 UV-I 0,0 C 49 % 84 % 0 % 1017,0 hPa 0,0 l/m 4,4 km/h (1 Bft) 0 min 5,5 km/h (1 Bft)
18.06.2010 04:52 21,8 C 12,2 C 0,1 UV-I 0,0 C 49 % 84 % 0 % 1016,9 hPa 0,0 l/m 5,2 km/h (1 Bft) 0 min 5,1 km/h (1 Bft)
18.06.2010 04:54 21,7 C 12,3 C 0,1 UV-I 0,0 C 49 % 84 % 0 % 1016,9 hPa 0,0 l/m 6,0 km/h (2 Bft) 0 min 9,3 km/h (2 Bft)
18.06.2010 04:56 21,7 C 12,3 C 0,1 UV-I 0,0 C 49 % 84 % 0 % 1016,9 hPa 0,0 l/m 7,6 km/h (2 Bft) 0 min 9,7 km/h (2 Bft)
18.06.2010 04:58 21,7 C 12,1 C 0,1 UV-I 0,0 C 49 % 84 % 0 % 1016,9 hPa 0,0 l/m 7,6 km/h (2 Bft) 0 min 7,4 km/h (2 Bft)
18.06.2010 05:00 21,7 C 12,1 C 0,1 UV-I 0,0 C 49 % 84 % 0 % 1016,9 hPa 0,0 l/m 7,6 km/h (2 Bft) 0 min 7,7 km/h (2 Bft)
18.06.2010 05:02 21,7 C 12,1 C 0,1 UV-I 0,0 C 49 % 84 % 0 % 1016,9 hPa 0,0 l/m 7,6 km/h (2 Bft) 0 min 8,4 km/h (2 Bft)
18.06.2010 05:04 21,7 C 12,0 C 0,1 UV-I 0,0 C 49 % 85 % 0 % 1016,9 hPa 0,0 l/m 7,2 km/h (2 Bft) 0 min 9,0 km/h (2 Bft)
18.06.2010 05:06 21,7 C 12,1 C 0,1 UV-I 0,0 C 49 % 85 % 0 % 1016,9 hPa 0,0 l/m 7,2 km/h (2 Bft) 0 min 11,6 km/h (2 Bft)
18.06.2010 05:08 21,6 C 12,0 C 0,1 UV-I 0,0 C 49 % 85 % 0 % 1016,9 hPa 0,0 l/m 6,8 km/h (2 Bft) 0 min 5,5 km/h (1 Bft)
18.06.2010 05:10 21,6 C 12,0 C 0,1 UV-I 0,0 C 49 % 85 % 0 % 1016,9 hPa 0,0 l/m 6,8 km/h (2 Bft) 0 min 5,5 km/h (1 Bft)
18.06.2010 05:12 21,6 C 11,9 C 0,1 UV-I 0,0 C 50 % 85 % 0 % 1016,9 hPa 0,0 l/m 6,4 km/h (2 Bft) 0 min 6,1 km/h (2 Bft)
18.06.2010 05:14 21,6 C 11,9 C 0,1 UV-I 0,0 C 49 % 85 % 0 % 1016,9 hPa 0,0 l/m 6,4 km/h (2 Bft) 0 min 8,4 km/h (2 Bft)
18.06.2010 05:16 21,6 C 11,8 C 0,1 UV-I 0,0 C 50 % 85 % 0 % 1016,9 hPa 0,0 l/m 7,2 km/h (2 Bft) 0 min 7,7 km/h (2 Bft)
18.06.2010 05:18 21,6 C 11,9 C 0,1 UV-I 0,0 C 50 % 86 % 0 % 1016,9 hPa 0,0 l/m 6,4 km/h (2 Bft) 0 min 8,4 km/h (2 Bft)
18.06.2010 05:20 21,6 C 11,8 C 0,1 UV-I 0,0 C 50 % 85 % 0 % 1016,9 hPa 0,0 l/m 6,4 km/h (2 Bft) 0 min 5,8 km/h (2 Bft)
18.06.2010 05:22 21,6 C 11,9 C 0,2 UV-I 0,0 C 50 % 86 % 0 % 1016,9 hPa 0,0 l/m 7,2 km/h (2 Bft) 0 min 8,0 km/h (2 Bft)
18.06.2010 05:24 21,6 C 11,7 C 0,2 UV-I 0,0 C 50 % 86 % 0 % 1016,9 hPa 0,0 l/m 7,2 km/h (2 Bft) 0 min 10,3 km/h (2 Bft)
18.06.2010 05:26 21,6 C 11,7 C 0,2 UV-I 0,0 C 50 % 86 % 0 % 1016,9 hPa 0,0 l/m 6,8 km/h (2 Bft) 0 min 5,5 km/h (1 Bft)
18.06.2010 05:28 21,6 C 11,7 C 0,2 UV-I 0,0 C 50 % 86 % 0 % 1016,9 hPa 0,0 l/m 7,2 km/h (2 Bft) 0 min 9,3 km/h (2 Bft)
18.06.2010 05:30 21,6 C 11,6 C 0,2 UV-I 0,0 C 50 % 86 % 0 % 1016,9 hPa 0,0 l/m 7,2 km/h (2 Bft) 0 min 9,3 km/h (2 Bft)
18.06.2010 05:32 21,5 C 11,6 C 0,2 UV-I 0,0 C 50 % 86 % 0 % 1016,6 hPa 0,0 l/m 7,6 km/h (2 Bft) 0 min 7,7 km/h (2 Bft)
18.06.2010 05:34 21,5 C 11,7 C 0,2 UV-I 0,0 C 50 % 87 % 0 % 1016,6 hPa 0,0 l/m 8,0 km/h (2 Bft) 0 min 4,2 km/h (1 Bft)
18.06.2010 05:36 21,5 C 11,6 C 0,2 UV-I 0,0 C 50 % 86 % 0 % 1016,6 hPa 0,0 l/m 7,6 km/h (2 Bft) 0 min 8,7 km/h (2 Bft)
18.06.2010 05:38 21,5 C 11,5 C 0,2 UV-I 0,0 C 50 % 87 % 0 % 1016,6 hPa 0,0 l/m 7,2 km/h (2 Bft) 0 min 5,1 km/h (1 Bft)
18.06.2010 05:40 21,5 C 11,5 C 0,2 UV-I 0,0 C 50 % 87 % 0 % 1016,6 hPa 0,0 l/m 6,8 km/h (2 Bft) 0 min 6,8 km/h (2 Bft)
18.06.2010 05:42 21,5 C 11,5 C 0,3 UV-I 0,0 C 50 % 87 % 0 % 1016,6 hPa 0,0 l/m 6,4 km/h (2 Bft) 0 min 8,4 km/h (2 Bft)
18.06.2010 05:44 21,5 C 11,5 C 0,3 UV-I 0,0 C 50 % 87 % 0 % 1016,6 hPa 0,0 l/m 5,6 km/h (1 Bft) 0 min 0,0 km/h (0 Bft)
18.06.2010 05:46 21,4 C 11,5 C 0,3 UV-I 0,0 C 50 % 87 % 0 % 1016,6 hPa 0,0 l/m 5,6 km/h (1 Bft) 0 min 7,7 km/h (2 Bft)
18.06.2010 05:48 21,4 C 11,5 C 0,3 UV-I 0,0 C 50 % 87 % 0 % 1016,6 hPa 0,0 l/m 6,0 km/h (2 Bft) 0 min 4,8 km/h (1 Bft)
18.06.2010 05:50 21,4 C 11,4 C 0,3 UV-I 0,0 C 50 % 87 % 0 % 1016,6 hPa 0,0 l/m 6,0 km/h (2 Bft) 0 min 4,8 km/h (1 Bft)
18.06.2010 05:52 21,4 C 11,5 C 0,4 UV-I 0,0 C 50 % 87 % 0 % 1017,0 hPa 0,0 l/m 6,4 km/h (2 Bft) 0 min 7,7 km/h (2 Bft)
18.06.2010 05:54 21,4 C 11,5 C 0,4 UV-I 0,0 C 50 % 87 % 0 % 1017,0 hPa 0,0 l/m 6,8 km/h (2 Bft) 0 min 7,1 km/h (2 Bft)
18.06.2010 05:56 21,4 C 11,3 C 0,4 UV-I 0,0 C 50 % 87 % 0 % 1017,0 hPa 0,0 l/m 8,4 km/h (2 Bft) 0 min 10,0 km/h (2 Bft)
18.06.2010 05:58 21,4 C 11,5 C 0,4 UV-I 0,0 C 50 % 87 % 0 % 1017,0 hPa 0,0 l/m 9,2 km/h (2 Bft) 0 min 7,4 km/h (2 Bft)
18.06.2010 06:00 21,4 C 11,3 C 0,4 UV-I 0,0 C 50 % 87 % 0 % 1017,0 hPa 0,0 l/m 9,2 km/h (2 Bft) 0 min 9,3 km/h (2 Bft)
18.06.2010 06:02 21,4 C 11,5 C 0,3 UV-I 0,0 C 50 % 88 % 0 % 1017,0 hPa 0,0 l/m 8,8 km/h (2 Bft) 0 min 9,0 km/h (2 Bft)
18.06.2010 06:04 21,4 C 11,5 C 0,3 UV-I 0,0 C 50 % 88 % 0 % 1017,0 hPa 0,0 l/m 8,8 km/h (2 Bft) 0 min 9,0 km/h (2 Bft)
18.06.2010 06:06 21,4 C 11,5 C 0,3 UV-I 0,0 C 50 % 88 % 0 % 1017,0 hPa 0,0 l/m 9,2 km/h (2 Bft) 0 min 12,2 km/h (2 Bft)
18.06.2010 06:08 21,4 C 11,4 C 0,3 UV-I 0,0 C 50 % 88 % 0 % 1017,0 hPa 0,0 l/m 9,6 km/h (2 Bft) 0 min 16,1 km/h (3 Bft)
18.06.2010 06:10 21,4 C 11,5 C 0,3 UV-I 0,0 C 50 % 88 % 0 % 1017,0 hPa 0,0 l/m 9,6 km/h (2 Bft) 0 min 16,1 km/h (3 Bft)
18.06.2010 06:12 21,4 C 11,5 C 0,4 UV-I 0,0 C 50 % 88 % 0 % 1017,1 hPa 0,0 l/m 11,6 km/h (2 Bft) 0 min 7,4 km/h (2 Bft)
18.06.2010 06:14 21,2 C 11,5 C 0,4 UV-I 0,0 C 50 % 88 % 0 % 1017,1 hPa 0,0 l/m 12,0 km/h (2 Bft) 0 min 11,6 km/h (2 Bft)
18.06.2010 06:16 21,2 C 11,5 C 0,4 UV-I 0,0 C 50 % 88 % 0 % 1017,1 hPa 0,0 l/m 12,8 km/h (3 Bft) 0 min 12,9 km/h (3 Bft)
18.06.2010 06:18 21,2 C 11,5 C 0,3 UV-I 0,0 C 50 % 88 % 0 % 1017,1 hPa 0,0 l/m 13,3 km/h (3 Bft) 0 min 10,3 km/h (2 Bft)
18.06.2010 06:20 21,2 C 11,5 C 0,3 UV-I 0,0 C 50 % 88 % 0 % 1017,1 hPa 0,0 l/m 12,0 km/h (2 Bft) 0 min 25,4 km/h (4 Bft)
18.06.2010 06:22 21,2 C 11,6 C 0,4 UV-I 0,0 C 50 % 89 % 0 % 1017,1 hPa 0,0 l/m 12,4 km/h (3 Bft) 0 min 15,4 km/h (3 Bft)
18.06.2010 06:24 21,3 C 11,6 C 0,4 UV-I 0,0 C 50 % 88 % 0 % 1017,1 hPa 0,0 l/m 12,8 km/h (3 Bft) 0 min 21,9 km/h (4 Bft)
18.06.2010 06:26 21,2 C 11,7 C 0,4 UV-I 0,0 C 50 % 88 % 0 % 1017,1 hPa 0,0 l/m 13,3 km/h (3 Bft) 0 min 15,8 km/h (3 Bft)
18.06.2010 06:28 21,3 C 11,7 C 0,4 UV-I 0,0 C 50 % 88 % 0 % 1017,1 hPa 0,0 l/m 13,7 km/h (3 Bft) 0 min 6,1 km/h (2 Bft)
18.06.2010 06:30 21,3 C 11,6 C 0,4 UV-I 0,0 C 50 % 88 % 0 % 1017,1 hPa 0,0 l/m 13,7 km/h (3 Bft) 0 min 33,5 km/h (5 Bft)
18.06.2010 06:32 21,2 C 11,6 C 0,4 UV-I 0,0 C 50 % 88 % 0 % 1017,2 hPa 0,0 l/m 15,7 km/h (3 Bft) 0 min 21,6 km/h (4 Bft)
18.06.2010 06:34 21,3 C 11,7 C 0,4 UV-I 0,0 C 50 % 88 % 0 % 1017,2 hPa 0,0 l/m 16,9 km/h (3 Bft) 0 min 19,0 km/h (3 Bft)
18.06.2010 06:36 21,3 C 11,6 C 0,4 UV-I 0,0 C 51 % 88 % 0 % 1017,2 hPa 0,0 l/m 16,9 km/h (3 Bft) 0 min 24,1 km/h (4 Bft)
18.06.2010 06:38 21,2 C 11,7 C 0,5 UV-I 0,0 C 51 % 88 % 0 % 1017,2 hPa 0,0 l/m 16,1 km/h (3 Bft) 0 min 16,4 km/h (3 Bft)
18.06.2010 06:40 21,2 C 11,6 C 0,5 UV-I 0,0 C 50 % 88 % 0 % 1017,2 hPa 0,0 l/m 16,5 km/h (3 Bft) 0 min 14,8 km/h (3 Bft)
18.06.2010 06:42 21,2 C 11,6 C 0,5 UV-I 0,0 C 51 % 88 % 0 % 1017,2 hPa 0,0 l/m 16,5 km/h (3 Bft) 0 min 13,5 km/h (3 Bft)
18.06.2010 06:44 21,3 C 11,6 C 0,5 UV-I 0,0 C 51 % 88 % 0 % 1017,2 hPa 0,0 l/m 16,1 km/h (3 Bft) 0 min 10,9 km/h (2 Bft)
18.06.2010 06:46 21,2 C 11,6 C 0,5 UV-I 0,0 C 51 % 88 % 0 % 1017,2 hPa 0,0 l/m 15,3 km/h (3 Bft) 0 min 17,1 km/h (3 Bft)
18.06.2010 06:48 21,2 C 11,7 C 0,6 UV-I 0,0 C 51 % 88 % 0 % 1017,2 hPa 0,0 l/m 14,9 km/h (3 Bft) 0 min 12,2 km/h (2 Bft)
18.06.2010 06:50 21,2 C 11,7 C 0,6 UV-I 0,0 C 51 % 88 % 0 % 1017,2 hPa 0,0 l/m 14,9 km/h (3 Bft) 0 min 12,2 km/h (2 Bft)
18.06.2010 06:52 21,2 C 11,7 C 0,6 UV-I 0,0 C 51 % 88 % 0 % 1017,2 hPa 0,0 l/m 14,1 km/h (3 Bft) 0 min 13,2 km/h (3 Bft)
18.06.2010 06:54 21,2 C 11,7 C 0,6 UV-I 0,0 C 51 % 88 % 0 % 1017,2 hPa 0,0 l/m 12,8 km/h (3 Bft) 0 min 6,1 km/h (2 Bft)
18.06.2010 06:56 21,2 C 11,8 C 0,6 UV-I 0,0 C 51 % 88 % 0 % 1017,2 hPa 0,0 l/m 12,0 km/h (2 Bft) 0 min 7,4 km/h (2 Bft)
18.06.2010 06:58 21,2 C 11,9 C 0,7 UV-I 0,0 C 51 % 87 % 0 % 1017,2 hPa 0,0 l/m 12,0 km/h (2 Bft) 0 min 8,7 km/h (2 Bft)
18.06.2010 07:00 21,2 C 11,9 C 0,7 UV-I 0,0 C 51 % 87 % 0 % 1017,2 hPa 0,0 l/m 12,0 km/h (2 Bft) 0 min 8,4 km/h (2 Bft)
18.06.2010 07:02 21,2 C 11,9 C 0,7 UV-I 0,0 C 51 % 87 % 0 % 1017,2 hPa 0,0 l/m 12,4 km/h (3 Bft) 0 min 15,1 km/h (3 Bft)
18.06.2010 07:04 21,2 C 11,9 C 0,7 UV-I 0,0 C 51 % 87 % 0 % 1017,2 hPa 0,0 l/m 12,4 km/h (3 Bft) 0 min 5,1 km/h (1 Bft)
18.06.2010 07:06 21,2 C 11,9 C 0,7 UV-I 0,0 C 51 % 87 % 0 % 1017,2 hPa 0,0 l/m 12,8 km/h (3 Bft) 0 min 5,1 km/h (1 Bft)
18.06.2010 07:08 21,2 C 11,9 C 0,8 UV-I 0,0 C 51 % 87 % 0 % 1017,2 hPa 0,0 l/m 13,3 km/h (3 Bft) 0 min 14,2 km/h (3 Bft)
18.06.2010 07:10 21,2 C 11,8 C 0,8 UV-I 0,0 C 51 % 87 % 0 % 1017,2 hPa 0,0 l/m 13,3 km/h (3 Bft) 0 min 14,2 km/h (3 Bft)
18.06.2010 07:12 21,2 C 11,9 C 0,8 UV-I 0,0 C 51 % 87 % 0 % 1017,2 hPa 0,0 l/m 12,0 km/h (2 Bft) 0 min 10,3 km/h (2 Bft)
18.06.2010 07:14 21,2 C 11,8 C 0,8 UV-I 0,1 C 51 % 87 % 3 % 1017,2 hPa 0,0 l/m 12,0 km/h (2 Bft) 0 min 19,6 km/h (3 Bft)
18.06.2010 07:16 21,2 C 11,9 C 0,8 UV-I 0,1 C 51 % 87 % 3 % 1017,2 hPa 0,0 l/m 12,0 km/h (2 Bft) 0 min 10,3 km/h (2 Bft)
18.06.2010 07:18 21,2 C 11,9 C 0,9 UV-I 0,1 C 51 % 87 % 3 % 1017,2 hPa 0,0 l/m 12,0 km/h (2 Bft) 0 min 6,8 km/h (2 Bft)
18.06.2010 07:20 21,2 C 11,9 C 0,9 UV-I 0,1 C 51 % 87 % 3 % 1017,2 hPa 0,0 l/m 11,2 km/h (2 Bft) 0 min 12,6 km/h (3 Bft)
18.06.2010 07:22 21,2 C 11,9 C 0,9 UV-I 0,2 C 51 % 87 % 6 % 1017,2 hPa 0,0 l/m 12,8 km/h (3 Bft) 0 min 7,1 km/h (2 Bft)
18.06.2010 07:24 21,2 C 11,9 C 0,9 UV-I 0,2 C 51 % 87 % 6 % 1017,2 hPa 0,0 l/m 13,3 km/h (3 Bft) 0 min 8,4 km/h (2 Bft)
18.06.2010 07:26 21,2 C 12,0 C 0,9 UV-I 0,1 C 51 % 87 % 3 % 1017,2 hPa 0,0 l/m 12,4 km/h (3 Bft) 0 min 17,1 km/h (3 Bft)
18.06.2010 07:28 21,2 C 12,0 C 0,9 UV-I 0,1 C 51 % 87 % 3 % 1017,2 hPa 0,0 l/m 12,8 km/h (3 Bft) 0 min 9,7 km/h (2 Bft)
18.06.2010 07:30 21,2 C 12,0 C 0,9 UV-I 0,1 C 51 % 87 % 3 % 1017,2 hPa 0,0 l/m 12,8 km/h (3 Bft) 0 min 9,7 km/h (2 Bft)
18.06.2010 07:32 21,2 C 12,1 C 0,9 UV-I 0,1 C 51 % 87 % 3 % 1017,3 hPa 0,0 l/m 11,6 km/h (2 Bft) 0 min 11,6 km/h (2 Bft)
18.06.2010 07:34 21,2 C 12,0 C 0,9 UV-I 0,2 C 51 % 87 % 6 % 1017,3 hPa 0,0 l/m 10,8 km/h (2 Bft) 0 min 8,4 km/h (2 Bft)
18.06.2010 07:36 21,3 C 12,1 C 0,9 UV-I 0,1 C 51 % 87 % 3 % 1017,3 hPa 0,0 l/m 11,6 km/h (2 Bft) 0 min 21,2 km/h (4 Bft)
18.06.2010 07:38 21,3 C 12,1 C 1,0 UV-I 0,1 C 51 % 87 % 3 % 1017,3 hPa 0,0 l/m 11,2 km/h (2 Bft) 0 min 14,2 km/h (3 Bft)
18.06.2010 07:40 21,3 C 12,0 C 1,0 UV-I 0,2 C 51 % 87 % 6 % 1017,3 hPa 0,0 l/m 10,8 km/h (2 Bft) 0 min 8,7 km/h (2 Bft)
18.06.2010 07:42 21,3 C 12,0 C 1,0 UV-I 0,2 C 51 % 87 % 6 % 1017,3 hPa 0,0 l/m 10,8 km/h (2 Bft) 0 min 10,9 km/h (2 Bft)
18.06.2010 07:44 21,2 C 12,1 C 1,0 UV-I 0,2 C 51 % 87 % 6 % 1017,3 hPa 0,0 l/m 10,4 km/h (2 Bft) 0 min 7,1 km/h (2 Bft)
18.06.2010 07:46 21,2 C 12,1 C 1,0 UV-I 0,2 C 51 % 87 % 6 % 1017,3 hPa 0,0 l/m 9,2 km/h (2 Bft) 0 min 11,3 km/h (2 Bft)
18.06.2010 07:48 21,2 C 12,1 C 1,0 UV-I 0,3 C 51 % 87 % 9 % 1017,3 hPa 0,0 l/m 8,4 km/h (2 Bft) 0 min 7,7 km/h (2 Bft)
18.06.2010 07:50 21,2 C 12,1 C 1,0 UV-I 0,3 C 51 % 87 % 9 % 1017,3 hPa 0,0 l/m 8,4 km/h (2 Bft) 0 min 7,7 km/h (2 Bft)
18.06.2010 07:52 21,2 C 12,0 C 1,0 UV-I 0,4 C 51 % 87 % 11 % 1017,4 hPa 0,0 l/m 8,4 km/h (2 Bft) 0 min 5,5 km/h (1 Bft)
18.06.2010 07:54 21,2 C 12,1 C 1,0 UV-I 0,3 C 51 % 87 % 9 % 1017,4 hPa 0,0 l/m 8,0 km/h (2 Bft) 0 min 4,8 km/h (1 Bft)
18.06.2010 07:56 21,2 C 12,1 C 1,0 UV-I 0,3 C 51 % 87 % 9 % 1017,4 hPa 0,0 l/m 8,4 km/h (2 Bft) 0 min 9,0 km/h (2 Bft)
18.06.2010 07:58 21,2 C 12,1 C 1,1 UV-I 0,3 C 51 % 86 % 9 % 1017,4 hPa 0,0 l/m 9,2 km/h (2 Bft) 0 min 9,7 km/h (2 Bft)
18.06.2010 08:00 21,2 C 12,1 C 1,1 UV-I 0,3 C 51 % 87 % 9 % 1017,4 hPa 0,0 l/m 9,2 km/h (2 Bft) 0 min 9,0 km/h (2 Bft)
18.06.2010 08:02 21,2 C 12,1 C 1,1 UV-I 0,3 C 51 % 86 % 9 % 1017,4 hPa 0,0 l/m 9,2 km/h (2 Bft) 0 min 10,6 km/h (2 Bft)
18.06.2010 08:04 21,2 C 12,1 C 1,1 UV-I 0,3 C 51 % 86 % 9 % 1017,4 hPa 0,0 l/m 9,6 km/h (2 Bft) 0 min 7,7 km/h (2 Bft)
18.06.2010 08:06 21,2 C 12,1 C 1,1 UV-I 0,3 C 51 % 86 % 9 % 1017,4 hPa 0,0 l/m 10,8 km/h (2 Bft) 0 min 11,6 km/h (2 Bft)
18.06.2010 08:08 21,2 C 12,0 C 1,1 UV-I 0,4 C 51 % 86 % 11 % 1017,4 hPa 0,0 l/m 10,0 km/h (2 Bft) 0 min 3,9 km/h (1 Bft)
18.06.2010 08:10 21,2 C 12,1 C 1,1 UV-I 0,3 C 51 % 86 % 9 % 1017,4 hPa 0,0 l/m 10,0 km/h (2 Bft) 0 min 3,9 km/h (1 Bft)
18.06.2010 08:12 21,2 C 12,0 C 1,0 UV-I 0,4 C 51 % 86 % 11 % 1017,4 hPa 0,0 l/m 9,2 km/h (2 Bft) 0 min 14,8 km/h (3 Bft)
18.06.2010 08:14 21,2 C 12,0 C 1,0 UV-I 0,3 C 51 % 86 % 9 % 1017,4 hPa 0,0 l/m 9,6 km/h (2 Bft) 0 min 9,7 km/h (2 Bft)
18.06.2010 08:16 21,2 C 12,0 C 1,0 UV-I 0,3 C 51 % 86 % 9 % 1017,4 hPa 0,0 l/m 10,4 km/h (2 Bft) 0 min 9,7 km/h (2 Bft)
18.06.2010 08:18 21,2 C 12,1 C 1,1 UV-I 0,2 C 51 % 86 % 6 % 1017,4 hPa 0,0 l/m 10,4 km/h (2 Bft) 0 min 8,7 km/h (2 Bft)
18.06.2010 08:20 21,2 C 12,0 C 1,1 UV-I 0,3 C 51 % 86 % 9 % 1017,4 hPa 0,0 l/m 11,6 km/h (2 Bft) 0 min 9,0 km/h (2 Bft)
18.06.2010 08:22 21,2 C 12,0 C 1,1 UV-I 0,3 C 51 % 86 % 9 % 1017,4 hPa 0,0 l/m 12,4 km/h (3 Bft) 0 min 11,9 km/h (2 Bft)
18.06.2010 08:24 21,2 C 12,0 C 1,1 UV-I 0,3 C 51 % 86 % 9 % 1017,4 hPa 0,0 l/m 12,4 km/h (3 Bft) 0 min 10,6 km/h (2 Bft)
18.06.2010 08:26 21,2 C 12,0 C 1,1 UV-I 0,3 C 51 % 86 % 9 % 1017,4 hPa 0,0 l/m 11,2 km/h (2 Bft) 0 min 13,8 km/h (3 Bft)
18.06.2010 08:28 21,2 C 12,1 C 1,1 UV-I 0,2 C 51 % 86 % 6 % 1017,4 hPa 0,0 l/m 10,4 km/h (2 Bft) 0 min 3,5 km/h (1 Bft)
18.06.2010 08:30 21,2 C 12,0 C 1,1 UV-I 0,3 C 51 % 86 % 9 % 1017,4 hPa 0,0 l/m 10,4 km/h (2 Bft) 0 min 3,5 km/h (1 Bft)
18.06.2010 08:32 21,2 C 12,1 C 1,1 UV-I 0,2 C 51 % 86 % 6 % 1017,5 hPa 0,0 l/m 10,4 km/h (2 Bft) 0 min 7,1 km/h (2 Bft)
18.06.2010 08:34 21,2 C 12,0 C 1,1 UV-I 0,3 C 51 % 86 % 9 % 1017,5 hPa 0,0 l/m 10,0 km/h (2 Bft) 0 min 12,2 km/h (2 Bft)
18.06.2010 08:36 21,2 C 12,0 C 1,1 UV-I 0,3 C 51 % 86 % 9 % 1017,5 hPa 0,0 l/m 11,2 km/h (2 Bft) 0 min 10,9 km/h (2 Bft)
18.06.2010 08:38 21,2 C 12,0 C 1,1 UV-I 0,3 C 51 % 86 % 9 % 1017,5 hPa 0,0 l/m 10,4 km/h (2 Bft) 0 min 6,1 km/h (2 Bft)
18.06.2010 08:40 21,2 C 12,1 C 1,1 UV-I 0,2 C 51 % 86 % 6 % 1017,5 hPa 0,0 l/m 10,8 km/h (2 Bft) 0 min 6,4 km/h (2 Bft)
18.06.2010 08:42 21,2 C 12,0 C 1,3 UV-I 0,3 C 51 % 86 % 9 % 1017,5 hPa 0,0 l/m 11,2 km/h (2 Bft) 0 min 11,3 km/h (2 Bft)
18.06.2010 08:44 21,2 C 12,0 C 1,3 UV-I 0,3 C 51 % 86 % 9 % 1017,5 hPa 0,0 l/m 11,2 km/h (2 Bft) 0 min 10,6 km/h (2 Bft)
18.06.2010 08:48 21,2 C 12,0 C 1,4 UV-I 0,4 C 51 % 86 % 11 % 1017,5 hPa 0,0 l/m 10,4 km/h (2 Bft) 0 min 14,5 km/h (3 Bft)
18.06.2010 08:50 21,2 C 12,0 C 1,4 UV-I 0,4 C 51 % 86 % 11 % 1017,5 hPa 0,0 l/m 10,4 km/h (2 Bft) 0 min 14,5 km/h (3 Bft)
18.06.2010 08:52 21,2 C 12,0 C 1,5 UV-I 0,4 C 51 % 86 % 11 % 1017,4 hPa 0,0 l/m 10,8 km/h (2 Bft) 0 min 17,4 km/h (3 Bft)
18.06.2010 08:54 21,2 C 12,1 C 1,5 UV-I 0,4 C 51 % 86 % 11 % 1017,4 hPa 0,0 l/m 11,2 km/h (2 Bft) 0 min 16,1 km/h (3 Bft)
18.06.2010 08:56 21,2 C 12,0 C 1,5 UV-I 0,4 C 51 % 86 % 11 % 1017,4 hPa 0,0 l/m 11,2 km/h (2 Bft) 0 min 7,1 km/h (2 Bft)
18.06.2010 08:58 21,2 C 12,0 C 1,5 UV-I 0,4 C 51 % 86 % 11 % 1017,4 hPa 0,0 l/m 12,0 km/h (2 Bft) 0 min 9,7 km/h (2 Bft)
18.06.2010 09:00 21,2 C 12,0 C 1,5 UV-I 0,4 C 51 % 86 % 11 % 1017,4 hPa 0,0 l/m 11,6 km/h (2 Bft) 0 min 35,7 km/h (5 Bft)
18.06.2010 09:02 21,2 C 12,0 C 1,5 UV-I 0,5 C 51 % 86 % 14 % 1017,4 hPa 0,0 l/m 11,6 km/h (2 Bft) 0 min 10,0 km/h (2 Bft)
18.06.2010 09:04 21,2 C 12,0 C 1,5 UV-I 0,6 C 51 % 86 % 17 % 1017,4 hPa 0,0 l/m 10,4 km/h (2 Bft) 0 min 8,0 km/h (2 Bft)
18.06.2010 09:08 21,2 C 12,1 C 1,8 UV-I 0,5 C 51 % 85 % 14 % 1017,4 hPa 0,0 l/m 10,4 km/h (2 Bft) 0 min 14,5 km/h (3 Bft)
18.06.2010 09:10 21,2 C 12,0 C 1,8 UV-I 0,6 C 51 % 85 % 17 % 1017,4 hPa 0,0 l/m 10,4 km/h (2 Bft) 0 min 14,5 km/h (3 Bft)
18.06.2010 09:12 21,2 C 12,0 C 1,7 UV-I 0,6 C 51 % 86 % 17 % 1017,8 hPa 0,0 l/m 10,0 km/h (2 Bft) 0 min 8,4 km/h (2 Bft)
18.06.2010 09:14 21,2 C 12,0 C 1,7 UV-I 0,6 C 51 % 85 % 17 % 1017,8 hPa 0,0 l/m 10,0 km/h (2 Bft) 0 min 17,7 km/h (3 Bft)
18.06.2010 09:16 21,2 C 12,0 C 1,7 UV-I 0,6 C 51 % 85 % 17 % 1017,8 hPa 0,0 l/m 11,6 km/h (2 Bft) 0 min 19,6 km/h (3 Bft)
18.06.2010 09:18 21,2 C 12,1 C 1,4 UV-I 0,5 C 51 % 85 % 14 % 1017,8 hPa 0,0 l/m 10,8 km/h (2 Bft) 0 min 8,0 km/h (2 Bft)
18.06.2010 09:20 21,2 C 12,1 C 1,4 UV-I 0,5 C 51 % 85 % 14 % 1017,8 hPa 0,0 l/m 10,4 km/h (2 Bft) 0 min 9,0 km/h (2 Bft)
18.06.2010 09:22 21,2 C 12,1 C 1,6 UV-I 0,5 C 51 % 85 % 14 % 1017,8 hPa 0,0 l/m 10,0 km/h (2 Bft) 0 min 9,0 km/h (2 Bft)
18.06.2010 09:24 21,2 C 12,1 C 1,6 UV-I 0,5 C 51 % 85 % 14 % 1017,8 hPa 0,0 l/m 10,0 km/h (2 Bft) 0 min 10,0 km/h (2 Bft)
18.06.2010 09:26 21,2 C 12,1 C 1,6 UV-I 0,6 C 51 % 85 % 17 % 1017,8 hPa 0,0 l/m 8,4 km/h (2 Bft) 0 min 5,8 km/h (2 Bft)
18.06.2010 09:28 21,2 C 12,3 C 1,5 UV-I 0,4 C 51 % 84 % 11 % 1017,8 hPa 0,0 l/m 8,0 km/h (2 Bft) 0 min 10,9 km/h (2 Bft)
18.06.2010 09:30 21,2 C 12,3 C 1,5 UV-I 0,4 C 51 % 84 % 11 % 1017,8 hPa 0,0 l/m 8,0 km/h (2 Bft) 0 min 10,9 km/h (2 Bft)
18.06.2010 09:32 21,2 C 12,3 C 1,7 UV-I 0,5 C 51 % 84 % 14 % 1017,9 hPa 0,0 l/m 9,6 km/h (2 Bft) 0 min 8,7 km/h (2 Bft)
18.06.2010 09:34 21,2 C 12,3 C 1,7 UV-I 0,5 C 51 % 84 % 14 % 1017,9 hPa 0,0 l/m 9,2 km/h (2 Bft) 0 min 7,1 km/h (2 Bft)
18.06.2010 09:36 21,2 C 12,2 C 1,7 UV-I 0,6 C 51 % 84 % 17 % 1017,9 hPa 0,0 l/m 9,6 km/h (2 Bft) 0 min 12,2 km/h (2 Bft)
18.06.2010 09:38 21,2 C 12,3 C 2,0 UV-I 0,6 C 51 % 84 % 17 % 1017,9 hPa 0,0 l/m 10,4 km/h (2 Bft) 0 min 15,1 km/h (3 Bft)
18.06.2010 09:40 21,2 C 12,3 C 2,0 UV-I 0,7 C 51 % 84 % 20 % 1017,9 hPa 0,0 l/m 10,8 km/h (2 Bft) 0 min 12,2 km/h (2 Bft)
18.06.2010 09:42 21,2 C 12,3 C 2,4 UV-I 0,7 C 51 % 84 % 20 % 1017,9 hPa 0,0 l/m 10,4 km/h (2 Bft) 0 min 12,2 km/h (2 Bft)
18.06.2010 09:44 21,2 C 12,3 C 2,4 UV-I 0,8 C 51 % 83 % 23 % 1017,9 hPa 0,0 l/m 10,0 km/h (2 Bft) 0 min 5,5 km/h (1 Bft)
18.06.2010 09:48 21,3 C 12,4 C 3,5 UV-I 1,2 C 51 % 83 % 34 % 1017,9 hPa 0,0 l/m 10,0 km/h (2 Bft) 0 min 15,8 km/h (3 Bft)
18.06.2010 09:50 21,3 C 12,5 C 3,5 UV-I 1,1 C 51 % 83 % 31 % 1017,9 hPa 0,0 l/m 10,0 km/h (2 Bft) 0 min 15,8 km/h (3 Bft)
18.06.2010 09:52 21,3 C 12,5 C 4,1 UV-I 1,5 C 51 % 83 % 43 % 1017,7 hPa 0,0 l/m 8,4 km/h (2 Bft) 0 min 12,2 km/h (2 Bft)
18.06.2010 09:54 21,3 C 12,6 C 4,1 UV-I 1,5 C 51 % 83 % 43 % 1017,7 hPa 0,0 l/m 9,6 km/h (2 Bft) 0 min 21,6 km/h (4 Bft)
18.06.2010 09:56 21,3 C 12,5 C 4,1 UV-I 1,5 C 51 % 82 % 43 % 1017,7 hPa 0,0 l/m 10,0 km/h (2 Bft) 0 min 10,6 km/h (2 Bft)
18.06.2010 09:58 21,3 C 12,6 C 2,5 UV-I 1,3 C 51 % 82 % 37 % 1017,7 hPa 0,0 l/m 11,2 km/h (2 Bft) 0 min 18,0 km/h (3 Bft)
18.06.2010 10:00 21,2 C 12,7 C 2,5 UV-I 1,1 C 51 % 82 % 31 % 1017,7 hPa 0,0 l/m 12,0 km/h (2 Bft) 0 min 12,9 km/h (3 Bft)
18.06.2010 10:02 21,2 C 12,7 C 2,2 UV-I 1,0 C 51 % 82 % 29 % 1017,7 hPa 0,0 l/m 12,8 km/h (3 Bft) 0 min 14,2 km/h (3 Bft)
18.06.2010 10:04 21,2 C 12,6 C 2,2 UV-I 1,0 C 51 % 81 % 29 % 1017,7 hPa 0,0 l/m 13,3 km/h (3 Bft) 0 min 12,9 km/h (3 Bft)
18.06.2010 10:06 21,2 C 12,7 C 2,2 UV-I 0,9 C 51 % 82 % 26 % 1017,7 hPa 0,0 l/m 12,4 km/h (3 Bft) 0 min 4,5 km/h (1 Bft)
18.06.2010 10:08 21,2 C 12,7 C 2,2 UV-I 0,9 C 51 % 81 % 26 % 1017,7 hPa 0,0 l/m 12,4 km/h (3 Bft) 0 min 17,4 km/h (3 Bft)
18.06.2010 10:10 21,2 C 12,7 C 2,2 UV-I 0,9 C 51 % 81 % 26 % 1017,7 hPa 0,0 l/m 12,4 km/h (3 Bft) 0 min 17,4 km/h (3 Bft)
18.06.2010 10:12 21,2 C 12,7 C 2,1 UV-I 0,8 C 51 % 81 % 23 % 1018,1 hPa 0,0 l/m 10,8 km/h (2 Bft) 0 min 4,8 km/h (1 Bft)
18.06.2010 10:14 21,2 C 12,7 C 2,1 UV-I 0,9 C 51 % 81 % 26 % 1018,1 hPa 0,0 l/m 9,6 km/h (2 Bft) 0 min 6,4 km/h (2 Bft)
18.06.2010 10:16 21,4 C 12,9 C 2,1 UV-I 0,7 C 51 % 82 % 20 % 1018,1 hPa 0,0 l/m 9,2 km/h (2 Bft) 0 min 6,1 km/h (2 Bft)
18.06.2010 10:20 21,2 C 12,9 C 2,2 UV-I 0,8 C 51 % 81 % 23 % 1018,1 hPa 0,0 l/m 9,2 km/h (2 Bft) 0 min 10,6 km/h (2 Bft)
18.06.2010 10:22 21,2 C 12,8 C 2,4 UV-I 0,9 C 51 % 81 % 26 % 1018,1 hPa 0,0 l/m 9,2 km/h (2 Bft) 0 min 9,7 km/h (2 Bft)
18.06.2010 10:24 21,4 C 12,9 C 2,4 UV-I 0,8 C 51 % 80 % 23 % 1018,1 hPa 0,0 l/m 10,8 km/h (2 Bft) 0 min 12,9 km/h (3 Bft)
18.06.2010 10:26 21,4 C 12,8 C 2,4 UV-I 0,9 C 51 % 80 % 26 % 1018,1 hPa 0,0 l/m 11,6 km/h (2 Bft) 0 min 5,1 km/h (1 Bft)
18.06.2010 10:28 21,4 C 12,8 C 2,5 UV-I 0,9 C 51 % 80 % 26 % 1018,1 hPa 0,0 l/m 12,0 km/h (2 Bft) 0 min 20,0 km/h (4 Bft)
18.06.2010 10:30 21,4 C 12,8 C 2,5 UV-I 0,9 C 51 % 80 % 26 % 1018,1 hPa 0,0 l/m 12,0 km/h (2 Bft) 0 min 20,0 km/h (4 Bft)
18.06.2010 10:32 21,2 C 12,9 C 3,1 UV-I 0,9 C 51 % 80 % 26 % 1018,0 hPa 0,0 l/m 13,3 km/h (3 Bft) 0 min 14,8 km/h (3 Bft)
18.06.2010 10:34 21,4 C 12,9 C 3,1 UV-I 0,9 C 51 % 80 % 26 % 1018,0 hPa 0,0 l/m 12,8 km/h (3 Bft) 0 min 8,7 km/h (2 Bft)
18.06.2010 10:38 21,4 C 13,1 C 3,5 UV-I 1,0 C 52 % 80 % 29 % 1018,0 hPa 0,0 l/m 12,8 km/h (3 Bft) 0 min 21,2 km/h (4 Bft)
18.06.2010 10:40 21,4 C 13,1 C 3,5 UV-I 1,1 C 52 % 80 % 31 % 1018,0 hPa 0,0 l/m 12,4 km/h (3 Bft) 0 min 4,8 km/h (1 Bft)
18.06.2010 10:42 21,4 C 13,0 C 3,6 UV-I 1,2 C 52 % 80 % 34 % 1018,0 hPa 0,0 l/m 12,0 km/h (2 Bft) 0 min 9,7 km/h (2 Bft)
18.06.2010 10:44 21,4 C 13,0 C 3,6 UV-I 1,4 C 52 % 79 % 40 % 1018,0 hPa 0,0 l/m 11,6 km/h (2 Bft) 0 min 14,8 km/h (3 Bft)
18.06.2010 10:46 21,4 C 13,1 C 3,6 UV-I 1,3 C 52 % 79 % 37 % 1018,0 hPa 0,0 l/m 12,0 km/h (2 Bft) 0 min 5,8 km/h (2 Bft)
18.06.2010 10:48 21,4 C 13,1 C 4,2 UV-I 1,5 C 52 % 79 % 43 % 1018,0 hPa 0,0 l/m 12,0 km/h (2 Bft) 0 min 16,1 km/h (3 Bft)
18.06.2010 10:50 21,4 C 13,2 C 4,2 UV-I 1,4 C 52 % 79 % 40 % 1018,0 hPa 0,0 l/m 12,0 km/h (2 Bft) 0 min 16,1 km/h (3 Bft)
18.06.2010 10:52 21,4 C 13,2 C 4,3 UV-I 1,6 C 52 % 79 % 46 % 1017,8 hPa 0,0 l/m 11,2 km/h (2 Bft) 0 min 5,5 km/h (1 Bft)
18.06.2010 10:56 21,4 C 13,2 C 4,3 UV-I 1,7 C 52 % 79 % 49 % 1017,8 hPa 0,0 l/m 9,6 km/h (2 Bft) 0 min 12,9 km/h (3 Bft)
18.06.2010 10:58 21,4 C 13,3 C 4,1 UV-I 1,7 C 52 % 79 % 49 % 1017,8 hPa 0,0 l/m 10,8 km/h (2 Bft) 0 min 17,1 km/h (3 Bft)
18.06.2010 11:00 21,4 C 13,2 C 4,1 UV-I 1,8 C 52 % 79 % 51 % 1017,8 hPa 0,0 l/m 10,4 km/h (2 Bft) 0 min 8,0 km/h (2 Bft)
18.06.2010 11:02 21,4 C 13,1 C 3,3 UV-I 1,8 C 52 % 80 % 51 % 1017,8 hPa 0,0 l/m 9,6 km/h (2 Bft) 0 min 6,8 km/h (2 Bft)
18.06.2010 11:04 21,4 C 13,2 C 3,3 UV-I 1,6 C 52 % 80 % 46 % 1017,8 hPa 0,0 l/m 10,4 km/h (2 Bft) 0 min 11,3 km/h (2 Bft)
18.06.2010 11:06 21,4 C 13,2 C 3,3 UV-I 1,6 C 52 % 80 % 46 % 1017,8 hPa 0,0 l/m 10,4 km/h (2 Bft) 0 min 7,1 km/h (2 Bft)
18.06.2010 11:08 21,4 C 13,2 C 2,8 UV-I 1,4 C 52 % 80 % 40 % 1017,8 hPa 0,0 l/m 11,2 km/h (2 Bft) 0 min 10,3 km/h (2 Bft)
18.06.2010 11:10 21,4 C 13,2 C 2,8 UV-I 1,4 C 52 % 80 % 40 % 1017,8 hPa 0,0 l/m 11,2 km/h (2 Bft) 0 min 10,3 km/h (2 Bft)
18.06.2010 11:12 21,4 C 13,2 C 3,0 UV-I 1,3 C 52 % 80 % 37 % 1017,9 hPa 0,0 l/m 10,4 km/h (2 Bft) 0 min 15,1 km/h (3 Bft)
18.06.2010 11:14 21,5 C 13,2 C 3,0 UV-I 1,3 C 52 % 80 % 37 % 1017,9 hPa 0,0 l/m 10,0 km/h (2 Bft) 0 min 7,4 km/h (2 Bft)
18.06.2010 11:18 21,5 C 13,2 C 2,7 UV-I 1,2 C 52 % 80 % 34 % 1017,9 hPa 0,0 l/m 9,2 km/h (2 Bft) 0 min 9,0 km/h (2 Bft)
18.06.2010 11:20 21,5 C 13,3 C 2,7 UV-I 1,1 C 52 % 80 % 31 % 1017,9 hPa 0,0 l/m 9,2 km/h (2 Bft) 0 min 11,9 km/h (2 Bft)
18.06.2010 11:22 21,5 C 13,3 C 2,9 UV-I 1,1 C 52 % 80 % 31 % 1017,9 hPa 0,0 l/m 9,2 km/h (2 Bft) 0 min 7,7 km/h (2 Bft)
18.06.2010 11:24 21,5 C 13,2 C 2,9 UV-I 1,2 C 52 % 80 % 34 % 1017,9 hPa 0,0 l/m 9,2 km/h (2 Bft) 0 min 6,8 km/h (2 Bft)
18.06.2010 11:26 21,5 C 13,2 C 2,9 UV-I 1,2 C 52 % 80 % 34 % 1017,9 hPa 0,0 l/m 9,6 km/h (2 Bft) 0 min 8,4 km/h (2 Bft)
18.06.2010 11:28 21,5 C 13,3 C 3,1 UV-I 1,1 C 52 % 80 % 31 % 1017,9 hPa 0,0 l/m 10,0 km/h (2 Bft) 0 min 19,3 km/h (3 Bft)
18.06.2010 11:30 21,5 C 13,2 C 3,1 UV-I 1,2 C 52 % 79 % 34 % 1017,9 hPa 0,0 l/m 10,0 km/h (2 Bft) 0 min 19,3 km/h (3 Bft)
18.06.2010 11:32 21,5 C 13,2 C 3,3 UV-I 1,2 C 52 % 79 % 34 % 1017,9 hPa 0,0 l/m 10,4 km/h (2 Bft) 0 min 14,2 km/h (3 Bft)
18.06.2010 11:34 21,5 C 13,2 C 3,3 UV-I 1,2 C 52 % 79 % 34 % 1017,9 hPa 0,0 l/m 10,4 km/h (2 Bft) 0 min 23,2 km/h (4 Bft)
18.06.2010 11:36 21,5 C 13,2 C 3,3 UV-I 1,2 C 52 % 79 % 34 % 1017,9 hPa 0,0 l/m 10,8 km/h (2 Bft) 0 min 15,1 km/h (3 Bft)
18.06.2010 11:38 21,6 C 13,2 C 3,6 UV-I 1,4 C 52 % 79 % 40 % 1017,9 hPa 0,0 l/m 9,2 km/h (2 Bft) 0 min 9,3 km/h (2 Bft)
18.06.2010 11:40 21,6 C 13,3 C 3,6 UV-I 1,3 C 52 % 79 % 37 % 1017,9 hPa 0,0 l/m 8,8 km/h (2 Bft) 0 min 7,7 km/h (2 Bft)
18.06.2010 11:42 21,6 C 13,3 C 3,4 UV-I 1,4 C 52 % 78 % 40 % 1017,9 hPa 0,0 l/m 9,2 km/h (2 Bft) 0 min 7,1 km/h (2 Bft)
18.06.2010 11:44 21,6 C 13,3 C 3,4 UV-I 1,4 C 52 % 78 % 40 % 1017,9 hPa 0,0 l/m 9,2 km/h (2 Bft) 0 min 9,0 km/h (2 Bft)
18.06.2010 11:46 21,6 C 13,3 C 3,4 UV-I 1,4 C 52 % 78 % 40 % 1017,9 hPa 0,0 l/m 9,2 km/h (2 Bft) 0 min 10,6 km/h (2 Bft)
18.06.2010 11:50 21,6 C 13,4 C 3,1 UV-I 1,3 C 52 % 78 % 37 % 1017,9 hPa 0,0 l/m 10,4 km/h (2 Bft) 0 min 6,4 km/h (2 Bft)
18.06.2010 11:52 21,6 C 13,5 C 3,5 UV-I 1,3 C 52 % 78 % 37 % 1018,1 hPa 0,0 l/m 10,8 km/h (2 Bft) 0 min 13,5 km/h (3 Bft)
18.06.2010 11:54 21,6 C 13,5 C 3,5 UV-I 1,3 C 52 % 78 % 37 % 1018,1 hPa 0,0 l/m 11,2 km/h (2 Bft) 0 min 5,5 km/h (1 Bft)
18.06.2010 11:56 21,6 C 13,4 C 3,5 UV-I 1,5 C 52 % 78 % 43 % 1018,1 hPa 0,0 l/m 10,8 km/h (2 Bft) 0 min 8,7 km/h (2 Bft)
18.06.2010 11:58 21,6 C 13,5 C 3,5 UV-I 1,5 C 52 % 78 % 43 % 1018,1 hPa 0,0 l/m 10,4 km/h (2 Bft) 0 min 10,9 km/h (2 Bft)
18.06.2010 12:00 21,6 C 13,5 C 3,5 UV-I 1,5 C 52 % 78 % 43 % 1018,1 hPa 0,0 l/m 9,6 km/h (2 Bft) 0 min 10,0 km/h (2 Bft)
18.06.2010 12:02 21,6 C 13,6 C 3,6 UV-I 1,4 C 52 % 78 % 40 % 1018,1 hPa 0,0 l/m 9,6 km/h (2 Bft) 0 min 9,0 km/h (2 Bft)
18.06.2010 12:04 21,6 C 13,6 C 3,6 UV-I 1,4 C 52 % 78 % 40 % 1018,1 hPa 0,0 l/m 9,6 km/h (2 Bft) 0 min 7,7 km/h (2 Bft)
18.06.2010 12:06 21,6 C 13,6 C 3,6 UV-I 1,6 C 52 % 78 % 46 % 1018,1 hPa 0,0 l/m 6,8 km/h (2 Bft) 0 min 4,8 km/h (1 Bft)
18.06.2010 12:08 21,6 C 13,7 C 3,8 UV-I 1,7 C 52 % 78 % 49 % 1018,1 hPa 0,0 l/m 6,4 km/h (2 Bft) 0 min 6,4 km/h (2 Bft)
18.06.2010 12:10 21,6 C 13,9 C 3,8 UV-I 1,5 C 52 % 78 % 43 % 1018,1 hPa 0,0 l/m 6,4 km/h (2 Bft) 0 min 6,4 km/h (2 Bft)
18.06.2010 12:14 21,6 C 14,0 C 3,7 UV-I 1,7 C 52 % 77 % 49 % 1018,0 hPa 0,0 l/m 3,2 km/h (1 Bft) 0 min 10,6 km/h (2 Bft)
18.06.2010 12:16 21,6 C 14,0 C 3,7 UV-I 1,8 C 52 % 77 % 51 % 1018,0 hPa 0,0 l/m 5,2 km/h (1 Bft) 0 min 12,9 km/h (3 Bft)
18.06.2010 12:18 21,6 C 14,0 C 3,8 UV-I 1,8 C 52 % 77 % 51 % 1018,0 hPa 0,0 l/m 6,0 km/h (2 Bft) 0 min 5,5 km/h (1 Bft)
18.06.2010 12:20 21,6 C 14,0 C 3,8 UV-I 1,8 C 52 % 76 % 51 % 1018,0 hPa 0,0 l/m 6,4 km/h (2 Bft) 0 min 4,5 km/h (1 Bft)
18.06.2010 12:22 21,6 C 14,0 C 3,9 UV-I 1,8 C 52 % 76 % 51 % 1018,0 hPa 0,0 l/m 8,4 km/h (2 Bft) 0 min 14,8 km/h (3 Bft)
18.06.2010 12:24 21,6 C 14,1 C 3,9 UV-I 1,6 C 52 % 76 % 46 % 1018,0 hPa 0,0 l/m 8,8 km/h (2 Bft) 0 min 5,5 km/h (1 Bft)
18.06.2010 12:28 21,6 C 14,1 C 3,6 UV-I 1,6 C 52 % 76 % 46 % 1018,0 hPa 0,0 l/m 8,0 km/h (2 Bft) 0 min 5,5 km/h (1 Bft)
18.06.2010 12:30 21,6 C 14,0 C 3,6 UV-I 1,7 C 52 % 76 % 49 % 1018,0 hPa 0,0 l/m 8,0 km/h (2 Bft) 0 min 5,5 km/h (1 Bft)
18.06.2010 12:32 21,6 C 14,1 C 4,0 UV-I 1,7 C 52 % 76 % 49 % 1018,0 hPa 0,0 l/m 8,0 km/h (2 Bft) 0 min 6,8 km/h (2 Bft)
18.06.2010 12:34 21,6 C 14,3 C 4,0 UV-I 1,6 C 52 % 76 % 46 % 1018,0 hPa 0,0 l/m 7,2 km/h (2 Bft) 0 min 6,4 km/h (2 Bft)
18.06.2010 12:36 21,6 C 14,3 C 4,0 UV-I 1,8 C 52 % 76 % 51 % 1018,0 hPa 0,0 l/m 7,6 km/h (2 Bft) 0 min 9,0 km/h (2 Bft)
18.06.2010 12:38 21,6 C 14,3 C 4,2 UV-I 1,9 C 52 % 75 % 54 % 1018,0 hPa 0,0 l/m 7,2 km/h (2 Bft) 0 min 9,0 km/h (2 Bft)
18.06.2010 12:40 21,6 C 14,3 C 4,2 UV-I 1,9 C 52 % 75 % 54 % 1018,0 hPa 0,0 l/m 6,8 km/h (2 Bft) 0 min 7,7 km/h (2 Bft)
18.06.2010 12:42 21,7 C 14,3 C 4,2 UV-I 2,0 C 52 % 75 % 57 % 1018,0 hPa 0,0 l/m 7,2 km/h (2 Bft) 0 min 8,7 km/h (2 Bft)
18.06.2010 12:44 21,7 C 14,4 C 4,2 UV-I 2,0 C 52 % 75 % 57 % 1018,0 hPa 0,0 l/m 6,8 km/h (2 Bft) 0 min 3,5 km/h (1 Bft)
18.06.2010 12:46 21,7 C 14,4 C 4,2 UV-I 2,1 C 51 % 76 % 60 % 1018,0 hPa 0,0 l/m 6,4 km/h (2 Bft) 0 min 5,8 km/h (2 Bft)
18.06.2010 12:50 21,7 C 14,8 C 6,1 UV-I 2,1 C 51 % 75 % 60 % 1018,0 hPa 0,0 l/m 6,0 km/h (2 Bft) 0 min 6,4 km/h (2 Bft)
18.06.2010 12:52 21,7 C 14,9 C 11,5 UV-I 3,7 C 52 % 74 % 100 % 1017,9 hPa 0,0 l/m 5,6 km/h (1 Bft) 2 min 10,9 km/h (2 Bft)
18.06.2010 12:54 21,8 C 15,1 C 11,5 UV-I 4,1 C 51 % 75 % 100 % 1017,9 hPa 0,0 l/m 5,6 km/h (1 Bft) 2 min 5,5 km/h (1 Bft)
18.06.2010 12:56 21,8 C 15,2 C 11,5 UV-I 4,4 C 51 % 74 % 100 % 1017,9 hPa 0,0 l/m 6,4 km/h (2 Bft) 2 min 7,4 km/h (2 Bft)
18.06.2010 12:58 21,8 C 15,3 C 10,2 UV-I 4,7 C 51 % 73 % 100 % 1017,9 hPa 0,0 l/m 6,0 km/h (2 Bft) 2 min 12,2 km/h (2 Bft)
18.06.2010 13:00 21,8 C 15,5 C 10,2 UV-I 4,9 C 51 % 73 % 100 % 1017,9 hPa 0,0 l/m 6,8 km/h (2 Bft) 2 min 14,5 km/h (3 Bft)
18.06.2010 13:02 21,9 C 15,7 C 9,3 UV-I 4,8 C 51 % 72 % 100 % 1017,9 hPa 0,0 l/m 6,8 km/h (2 Bft) 2 min 7,7 km/h (2 Bft)
18.06.2010 13:04 21,9 C 15,7 C 9,3 UV-I 4,9 C 51 % 71 % 100 % 1017,9 hPa 0,0 l/m 6,8 km/h (2 Bft) 2 min 5,8 km/h (2 Bft)
18.06.2010 13:06 22,0 C 15,9 C 9,3 UV-I 5,4 C 51 % 71 % 100 % 1017,9 hPa 0,0 l/m 7,2 km/h (2 Bft) 2 min 6,8 km/h (2 Bft)
18.06.2010 13:08 22,0 C 16,0 C 12,9 UV-I 6,0 C 51 % 72 % 100 % 1017,9 hPa 0,0 l/m 7,6 km/h (2 Bft) 2 min 8,4 km/h (2 Bft)
18.06.2010 13:12 22,0 C 16,3 C 11,9 UV-I 6,8 C 51 % 70 % 100 % 1017,9 hPa 0,0 l/m 9,2 km/h (2 Bft) 2 min 13,2 km/h (3 Bft)
18.06.2010 13:14 22,0 C 16,3 C 11,9 UV-I 6,8 C 51 % 70 % 100 % 1017,9 hPa 0,0 l/m 7,6 km/h (2 Bft) 2 min 0,0 km/h (0 Bft)
18.06.2010 13:16 22,1 C 16,4 C 11,9 UV-I 6,4 C 51 % 70 % 100 % 1017,9 hPa 0,0 l/m 6,4 km/h (2 Bft) 2 min 8,0 km/h (2 Bft)
18.06.2010 13:18 22,1 C 16,4 C 11,9 UV-I 6,2 C 51 % 70 % 100 % 1017,9 hPa 0,0 l/m 6,4 km/h (2 Bft) 2 min 5,1 km/h (1 Bft)
18.06.2010 13:20 22,1 C 16,6 C 11,9 UV-I 5,7 C 51 % 68 % 100 % 1017,9 hPa 0,0 l/m 6,4 km/h (2 Bft) 2 min 12,2 km/h (2 Bft)
18.06.2010 13:22 22,2 C 16,5 C 6,3 UV-I 5,3 C 51 % 68 % 100 % 1017,9 hPa 0,0 l/m 6,4 km/h (2 Bft) 2 min 3,9 km/h (1 Bft)
18.06.2010 13:24 22,2 C 16,5 C 6,3 UV-I 4,9 C 51 % 68 % 100 % 1017,9 hPa 0,0 l/m 5,6 km/h (1 Bft) 2 min 3,9 km/h (1 Bft)
18.06.2010 13:26 22,2 C 16,5 C 6,3 UV-I 4,5 C 51 % 68 % 100 % 1017,9 hPa 0,0 l/m 6,0 km/h (2 Bft) 2 min 4,8 km/h (1 Bft)
18.06.2010 13:28 22,2 C 16,5 C 5,5 UV-I 4,0 C 51 % 68 % 100 % 1017,9 hPa 0,0 l/m 5,6 km/h (1 Bft) 2 min 0,0 km/h (0 Bft)
18.06.2010 13:30 22,2 C 16,5 C 5,5 UV-I 4,0 C 50 % 68 % 100 % 1017,9 hPa 0,0 l/m 5,6 km/h (1 Bft) 2 min 0,0 km/h (0 Bft)
18.06.2010 13:32 22,2 C 16,5 C 7,2 UV-I 3,8 C 50 % 68 % 100 % 1017,9 hPa 0,0 l/m 4,4 km/h (1 Bft) 2 min 4,2 km/h (1 Bft)
18.06.2010 13:34 22,3 C 16,7 C 7,2 UV-I 3,8 C 50 % 68 % 100 % 1017,9 hPa 0,0 l/m 4,4 km/h (1 Bft) 2 min 7,7 km/h (2 Bft)
18.06.2010 13:36 22,3 C 16,9 C 7,2 UV-I 4,0 C 50 % 68 % 100 % 1017,9 hPa 0,0 l/m 4,8 km/h (1 Bft) 2 min 13,5 km/h (3 Bft)
18.06.2010 13:38 22,2 C 17,1 C 8,8 UV-I 4,2 C 50 % 67 % 100 % 1017,9 hPa 0,0 l/m 5,6 km/h (1 Bft) 2 min 6,8 km/h (2 Bft)
18.06.2010 13:40 22,4 C 17,3 C 8,8 UV-I 4,2 C 50 % 66 % 100 % 1017,9 hPa 0,0 l/m 6,0 km/h (2 Bft) 2 min 6,4 km/h (2 Bft)
18.06.2010 13:44 22,4 C 17,5 C 7,9 UV-I 4,1 C 50 % 65 % 100 % 1017,9 hPa 0,0 l/m 5,6 km/h (1 Bft) 2 min 5,5 km/h (1 Bft)
18.06.2010 13:46 22,4 C 17,5 C 7,9 UV-I 4,0 C 50 % 65 % 100 % 1017,9 hPa 0,0 l/m 5,6 km/h (1 Bft) 2 min 3,5 km/h (1 Bft)
18.06.2010 13:48 22,4 C 17,4 C 6,0 UV-I 4,0 C 50 % 65 % 100 % 1017,9 hPa 0,0 l/m 4,4 km/h (1 Bft) 2 min 0,0 km/h (0 Bft)
18.06.2010 13:50 22,4 C 17,5 C 6,0 UV-I 3,9 C 50 % 64 % 100 % 1017,9 hPa 0,0 l/m 4,4 km/h (1 Bft) 2 min 0,0 km/h (0 Bft)
18.06.2010 13:52 22,4 C 17,6 C 8,1 UV-I 3,8 C 50 % 65 % 100 % 1017,6 hPa 0,0 l/m 4,4 km/h (1 Bft) 2 min 4,5 km/h (1 Bft)
18.06.2010 13:54 22,5 C 17,7 C 8,1 UV-I 4,1 C 50 % 65 % 100 % 1017,6 hPa 0,0 l/m 4,4 km/h (1 Bft) 2 min 4,5 km/h (1 Bft)
18.06.2010 13:56 22,5 C 17,9 C 8,1 UV-I 4,5 C 50 % 63 % 100 % 1017,6 hPa 0,0 l/m 4,8 km/h (1 Bft) 2 min 6,8 km/h (2 Bft)
18.06.2010 13:58 22,5 C 18,0 C 9,4 UV-I 4,9 C 50 % 62 % 100 % 1017,6 hPa 0,0 l/m 6,4 km/h (2 Bft) 2 min 10,3 km/h (2 Bft)
18.06.2010 14:00 22,5 C 18,1 C 9,4 UV-I 4,6 C 50 % 62 % 100 % 1017,6 hPa 0,0 l/m 6,8 km/h (2 Bft) 2 min 18,3 km/h (3 Bft)
18.06.2010 14:02 22,5 C 18,1 C 5,7 UV-I 4,4 C 50 % 61 % 100 % 1017,6 hPa 0,0 l/m 7,6 km/h (2 Bft) 2 min 11,9 km/h (2 Bft)
18.06.2010 14:06 22,6 C 17,9 C 5,7 UV-I 3,5 C 49 % 61 % 100 % 1017,6 hPa 0,0 l/m 11,2 km/h (2 Bft) 2 min 13,2 km/h (3 Bft)
18.06.2010 14:08 22,6 C 17,9 C 5,4 UV-I 3,2 C 49 % 61 % 91 % 1017,6 hPa 0,0 l/m 12,0 km/h (2 Bft) 2 min 20,0 km/h (4 Bft)
18.06.2010 14:10 22,6 C 17,9 C 5,4 UV-I 3,2 C 49 % 62 % 91 % 1017,6 hPa 0,0 l/m 12,0 km/h (2 Bft) 2 min 20,0 km/h (4 Bft)
18.06.2010 14:14 22,6 C 17,8 C 5,1 UV-I 2,4 C 49 % 62 % 69 % 1017,5 hPa 0,0 l/m 13,7 km/h (3 Bft) 0 min 14,2 km/h (3 Bft)
18.06.2010 14:16 22,6 C 17,9 C 5,1 UV-I 2,2 C 49 % 62 % 63 % 1017,5 hPa 0,0 l/m 13,7 km/h (3 Bft) 0 min 10,3 km/h (2 Bft)
18.06.2010 14:22 22,7 C 18,2 C 9,0 UV-I 3,0 C 49 % 61 % 86 % 1017,5 hPa 0,0 l/m 11,6 km/h (2 Bft) 2 min 11,9 km/h (2 Bft)
18.06.2010 14:24 22,7 C 18,4 C 9,0 UV-I 3,1 C 49 % 60 % 89 % 1017,5 hPa 0,0 l/m 11,2 km/h (2 Bft) 2 min 11,6 km/h (2 Bft)
18.06.2010 14:28 22,8 C 18,6 C 11,0 UV-I 4,0 C 49 % 60 % 100 % 1017,5 hPa 0,0 l/m 12,0 km/h (2 Bft) 2 min 13,2 km/h (3 Bft)
18.06.2010 14:30 22,8 C 18,6 C 11,0 UV-I 4,0 C 49 % 60 % 100 % 1017,5 hPa 0,0 l/m 12,0 km/h (2 Bft) 2 min 10,6 km/h (2 Bft)
18.06.2010 14:32 22,9 C 18,7 C 9,0 UV-I 4,2 C 49 % 60 % 100 % 1017,3 hPa 0,0 l/m 14,1 km/h (3 Bft) 2 min 18,3 km/h (3 Bft)
18.06.2010 14:34 22,9 C 18,7 C 9,0 UV-I 3,7 C 49 % 60 % 100 % 1017,3 hPa 0,0 l/m 14,1 km/h (3 Bft) 2 min 10,6 km/h (2 Bft)
18.06.2010 14:36 22,9 C 18,5 C 9,0 UV-I 3,5 C 49 % 60 % 100 % 1017,3 hPa 0,0 l/m 14,5 km/h (3 Bft) 2 min 11,3 km/h (2 Bft)
18.06.2010 14:40 23,0 C 18,7 C 7,7 UV-I 3,5 C 49 % 62 % 100 % 1017,3 hPa 0,0 l/m 12,4 km/h (3 Bft) 2 min 9,7 km/h (2 Bft)
18.06.2010 14:42 23,0 C 18,9 C 7,7 UV-I 3,9 C 49 % 61 % 100 % 1017,3 hPa 0,0 l/m 11,6 km/h (2 Bft) 2 min 19,3 km/h (3 Bft)
18.06.2010 14:44 23,0 C 19,1 C 7,7 UV-I 4,0 C 49 % 61 % 100 % 1017,3 hPa 0,0 l/m 11,2 km/h (2 Bft) 2 min 4,2 km/h (1 Bft)
18.06.2010 14:46 23,1 C 19,0 C 7,7 UV-I 4,1 C 49 % 60 % 100 % 1017,3 hPa 0,0 l/m 10,8 km/h (2 Bft) 2 min 14,2 km/h (3 Bft)
18.06.2010 14:48 23,1 C 19,1 C 8,9 UV-I 4,2 C 48 % 60 % 100 % 1017,3 hPa 0,0 l/m 11,6 km/h (2 Bft) 2 min 13,8 km/h (3 Bft)
18.06.2010 14:50 23,2 C 18,9 C 8,9 UV-I 4,4 C 48 % 61 % 100 % 1017,3 hPa 0,0 l/m 11,6 km/h (2 Bft) 2 min 13,8 km/h (3 Bft)
18.06.2010 14:52 23,2 C 18,9 C 8,5 UV-I 3,8 C 48 % 61 % 100 % 1017,6 hPa 0,0 l/m 11,6 km/h (2 Bft) 2 min 10,3 km/h (2 Bft)
18.06.2010 14:56 23,2 C 18,9 C 8,5 UV-I 4,2 C 48 % 59 % 100 % 1017,6 hPa 0,0 l/m 12,8 km/h (3 Bft) 2 min 24,8 km/h (4 Bft)
18.06.2010 14:58 23,2 C 18,9 C 9,5 UV-I 4,1 C 48 % 60 % 100 % 1017,6 hPa 0,0 l/m 12,4 km/h (3 Bft) 2 min 6,4 km/h (2 Bft)
18.06.2010 15:00 23,2 C 18,8 C 9,5 UV-I 3,9 C 48 % 60 % 100 % 1017,6 hPa 0,0 l/m 12,4 km/h (3 Bft) 2 min 18,7 km/h (3 Bft)
18.06.2010 15:02 23,3 C 18,7 C 5,5 UV-I 3,7 C 48 % 61 % 100 % 1017,6 hPa 0,0 l/m 12,0 km/h (2 Bft) 2 min 6,4 km/h (2 Bft)
18.06.2010 15:04 23,2 C 18,6 C 5,5 UV-I 3,4 C 48 % 61 % 97 % 1017,6 hPa 0,0 l/m 11,6 km/h (2 Bft) 2 min 14,2 km/h (3 Bft)
18.06.2010 15:10 23,2 C 18,7 C 5,0 UV-I 2,7 C 48 % 61 % 77 % 1017,6 hPa 0,0 l/m 10,4 km/h (2 Bft) 0 min 21,9 km/h (4 Bft)
18.06.2010 15:14 23,2 C 18,7 C 6,2 UV-I 2,3 C 48 % 61 % 66 % 1017,5 hPa 0,0 l/m 11,2 km/h (2 Bft) 0 min 13,5 km/h (3 Bft)
18.06.2010 15:16 23,4 C 18,9 C 6,2 UV-I 2,7 C 48 % 61 % 77 % 1017,5 hPa 0,0 l/m 11,6 km/h (2 Bft) 0 min 9,0 km/h (2 Bft)
18.06.2010 15:18 23,4 C 18,9 C 10,5 UV-I 3,3 C 48 % 61 % 94 % 1017,5 hPa 0,0 l/m 12,4 km/h (3 Bft) 2 min 15,4 km/h (3 Bft)
18.06.2010 15:20 23,4 C 19,1 C 10,5 UV-I 3,4 C 48 % 61 % 97 % 1017,5 hPa 0,0 l/m 12,8 km/h (3 Bft) 2 min 20,3 km/h (4 Bft)
18.06.2010 15:22 23,5 C 19,1 C 8,7 UV-I 3,5 C 47 % 61 % 100 % 1017,5 hPa 0,0 l/m 13,7 km/h (3 Bft) 2 min 21,2 km/h (4 Bft)
18.06.2010 15:24 23,4 C 19,1 C 8,7 UV-I 3,4 C 48 % 60 % 97 % 1017,5 hPa 0,0 l/m 15,3 km/h (3 Bft) 2 min 14,2 km/h (3 Bft)
18.06.2010 15:28 23,5 C 19,1 C 7,6 UV-I 3,2 C 47 % 61 % 91 % 1017,5 hPa 0,0 l/m 14,1 km/h (3 Bft) 2 min 13,2 km/h (3 Bft)
18.06.2010 15:30 23,5 C 19,0 C 7,6 UV-I 3,3 C 47 % 60 % 94 % 1017,5 hPa 0,0 l/m 14,1 km/h (3 Bft) 2 min 11,6 km/h (2 Bft)
18.06.2010 15:32 23,6 C 18,9 C 6,6 UV-I 3,0 C 47 % 60 % 86 % 1017,8 hPa 0,0 l/m 14,5 km/h (3 Bft) 2 min 16,7 km/h (3 Bft)
18.06.2010 15:34 23,5 C 18,9 C 6,6 UV-I 2,7 C 47 % 61 % 77 % 1017,8 hPa 0,0 l/m 13,3 km/h (3 Bft) 0 min 7,1 km/h (2 Bft)
18.06.2010 15:36 23,6 C 18,8 C 6,6 UV-I 2,6 C 47 % 61 % 74 % 1017,8 hPa 0,0 l/m 12,0 km/h (2 Bft) 0 min 13,8 km/h (3 Bft)
18.06.2010 15:38 23,6 C 18,7 C 6,7 UV-I 2,5 C 47 % 61 % 71 % 1017,8 hPa 0,0 l/m 12,8 km/h (3 Bft) 0 min 15,1 km/h (3 Bft)
18.06.2010 15:44 23,6 C 18,6 C 7,8 UV-I 2,4 C 47 % 61 % 69 % 1017,8 hPa 0,0 l/m 14,1 km/h (3 Bft) 0 min 18,0 km/h (3 Bft)
18.06.2010 15:48 23,6 C 18,7 C 8,5 UV-I 2,7 C 47 % 61 % 77 % 1017,8 hPa 0,0 l/m 14,9 km/h (3 Bft) 0 min 12,9 km/h (3 Bft)
18.06.2010 15:54 23,6 C 18,5 C 5,4 UV-I 2,0 C 47 % 62 % 57 % 1017,8 hPa 0,0 l/m 12,4 km/h (3 Bft) 0 min 6,1 km/h (2 Bft)
18.06.2010 15:56 23,6 C 18,5 C 5,4 UV-I 2,0 C 47 % 62 % 57 % 1017,8 hPa 0,0 l/m 12,4 km/h (3 Bft) 0 min 6,1 km/h (2 Bft)
18.06.2010 15:58 23,6 C 18,3 C 2,2 UV-I 1,8 C 47 % 63 % 51 % 1017,8 hPa 0,0 l/m 12,8 km/h (3 Bft) 0 min 29,6 km/h (5 Bft)
18.06.2010 16:00 23,6 C 18,1 C 2,2 UV-I 1,4 C 47 % 64 % 40 % 1017,8 hPa 0,0 l/m 14,1 km/h (3 Bft) 0 min 26,1 km/h (4 Bft)
18.06.2010 16:02 23,6 C 17,9 C 1,7 UV-I 1,1 C 47 % 65 % 31 % 1017,8 hPa 0,0 l/m 15,7 km/h (3 Bft) 0 min 19,3 km/h (3 Bft)
18.06.2010 16:04 23,5 C 17,8 C 1,7 UV-I 0,8 C 47 % 65 % 23 % 1017,8 hPa 0,0 l/m 16,1 km/h (3 Bft) 0 min 11,9 km/h (2 Bft)
18.06.2010 16:06 23,5 C 17,6 C 1,7 UV-I 0,6 C 47 % 67 % 17 % 1017,8 hPa 0,0 l/m 17,3 km/h (3 Bft) 0 min 26,4 km/h (4 Bft)
18.06.2010 16:08 23,5 C 17,5 C 1,7 UV-I 0,5 C 47 % 67 % 14 % 1017,8 hPa 0,0 l/m 18,1 km/h (3 Bft) 0 min 17,1 km/h (3 Bft)
18.06.2010 16:10 23,5 C 17,5 C 1,7 UV-I 0,5 C 47 % 67 % 14 % 1017,8 hPa 0,0 l/m 18,1 km/h (3 Bft) 0 min 17,1 km/h (3 Bft)
18.06.2010 16:12 23,5 C 17,4 C 3,0 UV-I 0,4 C 47 % 67 % 11 % 1017,3 hPa 0,0 l/m 16,1 km/h (3 Bft) 0 min 15,8 km/h (3 Bft)
18.06.2010 16:14 23,5 C 17,2 C 3,0 UV-I 0,6 C 47 % 68 % 17 % 1017,3 hPa 0,0 l/m 14,9 km/h (3 Bft) 0 min 22,5 km/h (4 Bft)
18.06.2010 16:16 23,5 C 17,3 C 3,0 UV-I 0,5 C 47 % 68 % 14 % 1017,3 hPa 0,0 l/m 14,5 km/h (3 Bft) 0 min 15,4 km/h (3 Bft)
18.06.2010 16:18 23,4 C 17,2 C 3,3 UV-I 0,6 C 47 % 68 % 17 % 1017,3 hPa 0,0 l/m 13,3 km/h (3 Bft) 0 min 14,8 km/h (3 Bft)
18.06.2010 16:20 23,4 C 17,2 C 3,3 UV-I 0,6 C 47 % 69 % 17 % 1017,3 hPa 0,0 l/m 13,3 km/h (3 Bft) 0 min 10,6 km/h (2 Bft)
18.06.2010 16:22 23,4 C 17,2 C 4,8 UV-I 0,8 C 47 % 69 % 23 % 1017,3 hPa 0,0 l/m 12,8 km/h (3 Bft) 0 min 15,4 km/h (3 Bft)
18.06.2010 16:24 23,4 C 17,3 C 4,8 UV-I 0,9 C 47 % 69 % 26 % 1017,3 hPa 0,0 l/m 13,7 km/h (3 Bft) 0 min 15,1 km/h (3 Bft)
18.06.2010 16:26 23,4 C 17,3 C 4,8 UV-I 1,2 C 47 % 70 % 34 % 1017,3 hPa 0,0 l/m 12,8 km/h (3 Bft) 0 min 10,3 km/h (2 Bft)
18.06.2010 16:28 23,4 C 17,5 C 6,7 UV-I 1,5 C 47 % 69 % 43 % 1017,3 hPa 0,0 l/m 12,4 km/h (3 Bft) 0 min 15,4 km/h (3 Bft)
18.06.2010 16:30 23,4 C 17,5 C 6,7 UV-I 1,5 C 47 % 69 % 43 % 1017,3 hPa 0,0 l/m 12,4 km/h (3 Bft) 0 min 15,4 km/h (3 Bft)
18.06.2010 16:32 23,4 C 17,6 C 7,7 UV-I 2,1 C 47 % 70 % 60 % 1016,9 hPa 0,0 l/m 11,2 km/h (2 Bft) 0 min 4,2 km/h (1 Bft)
18.06.2010 16:34 23,4 C 17,6 C 7,7 UV-I 2,5 C 48 % 70 % 71 % 1016,9 hPa 0,0 l/m 10,0 km/h (2 Bft) 0 min 17,4 km/h (3 Bft)
18.06.2010 16:36 23,4 C 17,7 C 7,7 UV-I 2,4 C 48 % 68 % 69 % 1016,9 hPa 0,0 l/m 10,8 km/h (2 Bft) 0 min 16,4 km/h (3 Bft)
18.06.2010 16:38 23,4 C 17,6 C 3,7 UV-I 2,2 C 47 % 68 % 63 % 1016,9 hPa 0,0 l/m 11,6 km/h (2 Bft) 0 min 8,4 km/h (2 Bft)
18.06.2010 16:40 23,4 C 17,5 C 3,7 UV-I 1,9 C 47 % 69 % 54 % 1016,9 hPa 0,0 l/m 11,2 km/h (2 Bft) 0 min 12,9 km/h (3 Bft)
18.06.2010 16:42 23,4 C 17,5 C 1,4 UV-I 1,6 C 47 % 69 % 46 % 1016,9 hPa 0,0 l/m 10,0 km/h (2 Bft) 0 min 9,0 km/h (2 Bft)
18.06.2010 16:44 23,4 C 17,5 C 1,4 UV-I 1,2 C 47 % 69 % 34 % 1016,9 hPa 0,0 l/m 10,8 km/h (2 Bft) 0 min 16,4 km/h (3 Bft)
18.06.2010 16:46 23,4 C 17,3 C 1,4 UV-I 1,1 C 47 % 68 % 31 % 1016,9 hPa 0,0 l/m 9,6 km/h (2 Bft) 0 min 5,1 km/h (1 Bft)
18.06.2010 16:48 23,4 C 17,3 C 0,8 UV-I 0,8 C 47 % 69 % 23 % 1016,9 hPa 0,0 l/m 8,8 km/h (2 Bft) 0 min 6,1 km/h (2 Bft)
18.06.2010 16:50 23,2 C 17,1 C 0,8 UV-I 1,0 C 47 % 69 % 29 % 1016,9 hPa 0,0 l/m 8,8 km/h (2 Bft) 0 min 6,1 km/h (2 Bft)
18.06.2010 16:52 23,2 C 17,2 C 0,7 UV-I 0,4 C 47 % 70 % 11 % 1016,9 hPa 0,0 l/m 9,6 km/h (2 Bft) 0 min 14,2 km/h (3 Bft)
18.06.2010 16:54 23,2 C 17,1 C 0,7 UV-I 0,1 C 47 % 71 % 3 % 1016,9 hPa 0,0 l/m 11,2 km/h (2 Bft) 0 min 18,3 km/h (3 Bft)
18.06.2010 16:56 23,3 C 16,9 C 0,7 UV-I 0,1 C 47 % 72 % 3 % 1016,9 hPa 0,0 l/m 11,2 km/h (2 Bft) 0 min 7,7 km/h (2 Bft)
18.06.2010 16:58 23,2 C 16,9 C 2,3 UV-I 0,0 C 47 % 72 % 0 % 1016,9 hPa 0,0 l/m 11,6 km/h (2 Bft) 0 min 7,7 km/h (2 Bft)
18.06.2010 17:00 23,2 C 16,9 C 2,3 UV-I 0,1 C 47 % 72 % 3 % 1016,9 hPa 0,0 l/m 10,8 km/h (2 Bft) 0 min 8,4 km/h (2 Bft)
18.06.2010 17:02 23,2 C 17,0 C 4,8 UV-I 0,3 C 48 % 72 % 9 % 1016,9 hPa 0,0 l/m 10,0 km/h (2 Bft) 0 min 4,5 km/h (1 Bft)
18.06.2010 17:04 23,2 C 17,1 C 4,8 UV-I 0,5 C 48 % 72 % 14 % 1016,9 hPa 0,0 l/m 9,2 km/h (2 Bft) 0 min 5,1 km/h (1 Bft)
18.06.2010 17:06 23,2 C 17,2 C 4,8 UV-I 1,2 C 48 % 72 % 34 % 1016,9 hPa 0,0 l/m 7,2 km/h (2 Bft) 0 min 0,0 km/h (0 Bft)
18.06.2010 17:08 23,2 C 17,3 C 5,7 UV-I 1,6 C 48 % 72 % 46 % 1016,9 hPa 0,0 l/m 5,6 km/h (1 Bft) 0 min 0,0 km/h (0 Bft)
18.06.2010 17:10 23,2 C 17,5 C 5,7 UV-I 1,4 C 48 % 71 % 40 % 1016,9 hPa 0,0 l/m 5,6 km/h (1 Bft) 0 min 0,0 km/h (0 Bft)
18.06.2010 17:12 23,2 C 17,5 C 3,5 UV-I 1,6 C 48 % 71 % 46 % 1016,8 hPa 0,0 l/m 7,2 km/h (2 Bft) 0 min 13,8 km/h (3 Bft)
18.06.2010 17:14 23,2 C 17,4 C 3,5 UV-I 1,6 C 48 % 70 % 46 % 1016,8 hPa 0,0 l/m 9,6 km/h (2 Bft) 0 min 22,5 km/h (4 Bft)
18.06.2010 17:16 23,2 C 17,2 C 3,5 UV-I 1,6 C 48 % 70 % 46 % 1016,8 hPa 0,0 l/m 10,4 km/h (2 Bft) 0 min 24,5 km/h (4 Bft)
18.06.2010 17:18 23,2 C 17,2 C 2,5 UV-I 1,3 C 48 % 70 % 37 % 1016,8 hPa 0,0 l/m 11,2 km/h (2 Bft) 0 min 4,5 km/h (1 Bft)
18.06.2010 17:20 23,2 C 17,3 C 2,5 UV-I 1,0 C 48 % 70 % 29 % 1016,8 hPa 0,0 l/m 12,0 km/h (2 Bft) 0 min 3,2 km/h (1 Bft)
18.06.2010 17:24 23,1 C 17,2 C 2,4 UV-I 1,0 C 48 % 71 % 29 % 1016,8 hPa 0,0 l/m 9,6 km/h (2 Bft) 0 min 10,9 km/h (2 Bft)
18.06.2010 17:26 23,1 C 17,3 C 2,4 UV-I 0,8 C 48 % 71 % 23 % 1016,8 hPa 0,0 l/m 8,0 km/h (2 Bft) 0 min 0,0 km/h (0 Bft)
18.06.2010 17:28 23,1 C 17,3 C 2,9 UV-I 0,8 C 48 % 72 % 23 % 1016,8 hPa 0,0 l/m 7,2 km/h (2 Bft) 0 min 19,3 km/h (3 Bft)
18.06.2010 17:30 23,1 C 17,3 C 2,9 UV-I 0,8 C 48 % 72 % 23 % 1016,8 hPa 0,0 l/m 7,2 km/h (2 Bft) 0 min 19,3 km/h (3 Bft)
18.06.2010 17:32 23,1 C 17,3 C 2,9 UV-I 1,0 C 48 % 72 % 29 % 1016,6 hPa 0,0 l/m 8,4 km/h (2 Bft) 0 min 7,4 km/h (2 Bft)
18.06.2010 17:34 23,1 C 17,5 C 2,9 UV-I 1,1 C 48 % 73 % 31 % 1016,6 hPa 0,0 l/m 7,2 km/h (2 Bft) 0 min 6,1 km/h (2 Bft)
18.06.2010 17:36 23,1 C 17,5 C 2,9 UV-I 1,3 C 48 % 73 % 37 % 1016,6 hPa 0,0 l/m 6,0 km/h (2 Bft) 0 min 0,0 km/h (0 Bft)
18.06.2010 17:38 23,1 C 17,5 C 4,3 UV-I 1,5 C 48 % 73 % 43 % 1016,6 hPa 0,0 l/m 6,4 km/h (2 Bft) 0 min 5,8 km/h (2 Bft)
18.06.2010 17:40 23,1 C 17,4 C 4,3 UV-I 1,6 C 48 % 72 % 46 % 1016,6 hPa 0,0 l/m 6,4 km/h (2 Bft) 0 min 3,9 km/h (1 Bft)
18.06.2010 17:42 23,1 C 17,4 C 2,6 UV-I 1,4 C 48 % 72 % 40 % 1016,6 hPa 0,0 l/m 5,6 km/h (1 Bft) 0 min 0,0 km/h (0 Bft)
18.06.2010 17:44 23,0 C 17,3 C 2,6 UV-I 1,3 C 48 % 73 % 37 % 1016,6 hPa 0,0 l/m 6,0 km/h (2 Bft) 0 min 7,7 km/h (2 Bft)
18.06.2010 17:46 23,0 C 17,2 C 2,6 UV-I 1,2 C 48 % 73 % 34 % 1016,6 hPa 0,0 l/m 8,0 km/h (2 Bft) 0 min 12,6 km/h (3 Bft)
18.06.2010 17:48 23,0 C 17,1 C 1,8 UV-I 1,1 C 48 % 73 % 31 % 1016,6 hPa 0,0 l/m 10,4 km/h (2 Bft) 0 min 21,6 km/h (4 Bft)
18.06.2010 17:50 23,0 C 17,1 C 1,8 UV-I 1,1 C 48 % 74 % 31 % 1016,6 hPa 0,0 l/m 10,4 km/h (2 Bft) 0 min 21,6 km/h (4 Bft)
18.06.2010 17:52 23,0 C 16,9 C 1,9 UV-I 0,5 C 48 % 76 % 14 % 1016,5 hPa 0,0 l/m 13,3 km/h (3 Bft) 0 min 16,4 km/h (3 Bft)
18.06.2010 17:54 23,0 C 16,7 C 1,9 UV-I 0,4 C 48 % 76 % 11 % 1016,5 hPa 0,0 l/m 14,5 km/h (3 Bft) 0 min 7,1 km/h (2 Bft)
18.06.2010 17:56 23,0 C 16,6 C 1,9 UV-I 0,1 C 48 % 77 % 3 % 1016,5 hPa 0,0 l/m 15,7 km/h (3 Bft) 0 min 11,3 km/h (2 Bft)
18.06.2010 17:58 22,9 C 16,4 C 2,2 UV-I 0,0 C 48 % 77 % 0 % 1016,5 hPa 0,0 l/m 14,1 km/h (3 Bft) 0 min 10,3 km/h (2 Bft)
18.06.2010 18:00 22,9 C 16,4 C 2,2 UV-I 0,0 C 48 % 78 % 0 % 1016,5 hPa 0,0 l/m 12,8 km/h (3 Bft) 0 min 7,1 km/h (2 Bft)
18.06.2010 18:02 22,9 C 16,5 C 2,4 UV-I 0,0 C 48 % 78 % 0 % 1016,5 hPa 0,0 l/m 11,6 km/h (2 Bft) 0 min 14,8 km/h (3 Bft)
18.06.2010 18:06 22,9 C 16,4 C 2,4 UV-I 0,0 C 49 % 78 % 0 % 1016,5 hPa 0,0 l/m 9,2 km/h (2 Bft) 0 min 12,6 km/h (3 Bft)
18.06.2010 18:08 22,9 C 16,5 C 3,0 UV-I 0,0 C 49 % 78 % 0 % 1016,5 hPa 0,0 l/m 9,2 km/h (2 Bft) 0 min 10,3 km/h (2 Bft)
18.06.2010 18:10 22,9 C 16,4 C 3,0 UV-I 0,1 C 49 % 78 % 3 % 1016,5 hPa 0,0 l/m 9,2 km/h (2 Bft) 0 min 10,3 km/h (2 Bft)
18.06.2010 18:12 22,8 C 16,4 C 3,0 UV-I 0,4 C 49 % 78 % 11 % 1016,3 hPa 0,0 l/m 7,2 km/h (2 Bft) 0 min 0,0 km/h (0 Bft)
18.06.2010 18:14 22,8 C 16,6 C 3,0 UV-I 0,4 C 49 % 78 % 11 % 1016,3 hPa 0,0 l/m 5,2 km/h (1 Bft) 0 min 3,5 km/h (1 Bft)
18.06.2010 18:16 22,8 C 16,7 C 3,0 UV-I 0,4 C 49 % 77 % 11 % 1016,3 hPa 0,0 l/m 5,6 km/h (1 Bft) 0 min 19,3 km/h (3 Bft)
18.06.2010 18:18 22,8 C 16,6 C 2,2 UV-I 0,5 C 49 % 77 % 14 % 1016,3 hPa 0,0 l/m 5,6 km/h (1 Bft) 0 min 5,8 km/h (2 Bft)
18.06.2010 18:20 22,8 C 16,6 C 2,2 UV-I 0,5 C 49 % 77 % 14 % 1016,3 hPa 0,0 l/m 5,2 km/h (1 Bft) 0 min 9,7 km/h (2 Bft)
18.06.2010 18:24 22,8 C 16,5 C 2,2 UV-I 0,7 C 49 % 76 % 20 % 1016,3 hPa 0,0 l/m 8,0 km/h (2 Bft) 0 min 10,0 km/h (2 Bft)
18.06.2010 18:26 22,8 C 16,6 C 2,2 UV-I 0,6 C 49 % 76 % 17 % 1016,3 hPa 0,0 l/m 8,0 km/h (2 Bft) 0 min 10,0 km/h (2 Bft)
18.06.2010 18:28 22,8 C 16,5 C 3,3 UV-I 0,9 C 49 % 76 % 26 % 1016,3 hPa 0,0 l/m 7,2 km/h (2 Bft) 0 min 12,9 km/h (3 Bft)
18.06.2010 18:30 22,8 C 16,7 C 3,3 UV-I 0,7 C 49 % 76 % 20 % 1016,3 hPa 0,0 l/m 7,2 km/h (2 Bft) 0 min 12,9 km/h (3 Bft)
18.06.2010 18:32 22,8 C 16,6 C 4,0 UV-I 1,1 C 49 % 76 % 31 % 1016,0 hPa 0,0 l/m 7,6 km/h (2 Bft) 0 min 10,3 km/h (2 Bft)
18.06.2010 18:34 22,8 C 16,7 C 4,0 UV-I 1,2 C 49 % 76 % 34 % 1016,0 hPa 0,0 l/m 6,8 km/h (2 Bft) 0 min 5,1 km/h (1 Bft)
18.06.2010 18:36 22,8 C 16,7 C 4,0 UV-I 1,3 C 49 % 76 % 37 % 1016,0 hPa 0,0 l/m 6,4 km/h (2 Bft) 0 min 0,0 km/h (0 Bft)
18.06.2010 18:38 22,8 C 16,8 C 3,9 UV-I 1,4 C 50 % 77 % 40 % 1016,0 hPa 0,0 l/m 5,6 km/h (1 Bft) 0 min 3,2 km/h (1 Bft)
18.06.2010 18:42 22,8 C 16,9 C 3,3 UV-I 1,5 C 50 % 76 % 43 % 1016,0 hPa 0,0 l/m 6,8 km/h (2 Bft) 0 min 33,8 km/h (5 Bft)
18.06.2010 18:44 22,8 C 16,9 C 3,3 UV-I 1,4 C 50 % 76 % 40 % 1016,0 hPa 0,0 l/m 6,8 km/h (2 Bft) 0 min 3,9 km/h (1 Bft)
18.06.2010 18:46 22,8 C 16,9 C 3,3 UV-I 1,3 C 50 % 76 % 37 % 1016,0 hPa 0,0 l/m 6,0 km/h (2 Bft) 0 min 7,4 km/h (2 Bft)
18.06.2010 18:48 22,8 C 17,0 C 3,0 UV-I 1,2 C 50 % 76 % 34 % 1016,0 hPa 0,0 l/m 7,2 km/h (2 Bft) 0 min 14,5 km/h (3 Bft)
18.06.2010 18:50 22,8 C 17,0 C 3,0 UV-I 1,2 C 49 % 75 % 34 % 1016,0 hPa 0,0 l/m 7,2 km/h (2 Bft) 0 min 14,5 km/h (3 Bft)
18.06.2010 18:54 22,8 C 16,8 C 2,5 UV-I 1,0 C 50 % 75 % 29 % 1016,0 hPa 0,0 l/m 8,8 km/h (2 Bft) 0 min 10,0 km/h (2 Bft)
18.06.2010 18:56 22,8 C 16,8 C 2,5 UV-I 0,9 C 49 % 75 % 26 % 1016,0 hPa 0,0 l/m 9,6 km/h (2 Bft) 0 min 5,1 km/h (1 Bft)
18.06.2010 18:58 22,8 C 16,8 C 2,5 UV-I 0,8 C 50 % 75 % 23 % 1016,0 hPa 0,0 l/m 9,2 km/h (2 Bft) 0 min 3,9 km/h (1 Bft)
18.06.2010 19:00 22,8 C 16,9 C 2,5 UV-I 0,7 C 50 % 76 % 20 % 1016,0 hPa 0,0 l/m 8,4 km/h (2 Bft) 0 min 4,2 km/h (1 Bft)
18.06.2010 19:02 22,7 C 16,8 C 2,1 UV-I 0,8 C 50 % 75 % 23 % 1016,0 hPa 0,0 l/m 6,0 km/h (2 Bft) 0 min 5,8 km/h (2 Bft)
18.06.2010 19:04 22,7 C 16,9 C 2,1 UV-I 0,7 C 50 % 74 % 20 % 1016,0 hPa 0,0 l/m 5,2 km/h (1 Bft) 0 min 14,5 km/h (3 Bft)
18.06.2010 19:06 22,7 C 16,9 C 2,1 UV-I 0,7 C 50 % 74 % 20 % 1016,0 hPa 0,0 l/m 4,8 km/h (1 Bft) 0 min 0,0 km/h (0 Bft)
18.06.2010 19:08 22,7 C 17,1 C 1,9 UV-I 0,5 C 50 % 73 % 14 % 1016,0 hPa 0,0 l/m 4,8 km/h (1 Bft) 0 min 6,4 km/h (2 Bft)
18.06.2010 19:10 22,7 C 17,1 C 1,9 UV-I 0,5 C 50 % 73 % 14 % 1016,0 hPa 0,0 l/m 4,8 km/h (1 Bft) 0 min 6,4 km/h (2 Bft)
18.06.2010 19:12 22,7 C 17,0 C 1,6 UV-I 0,5 C 50 % 72 % 14 % 1015,8 hPa 0,0 l/m 6,8 km/h (2 Bft) 0 min 8,7 km/h (2 Bft)
18.06.2010 19:14 22,7 C 17,0 C 1,6 UV-I 0,4 C 50 % 72 % 11 % 1015,8 hPa 0,0 l/m 6,4 km/h (2 Bft) 0 min 4,8 km/h (1 Bft)
18.06.2010 19:20 22,6 C 16,9 C 1,1 UV-I 0,2 C 50 % 73 % 6 % 1015,8 hPa 0,0 l/m 8,4 km/h (2 Bft) 0 min 7,7 km/h (2 Bft)
18.06.2010 19:22 22,6 C 16,8 C 1,0 UV-I 0,3 C 50 % 73 % 9 % 1015,8 hPa 0,0 l/m 8,0 km/h (2 Bft) 0 min 3,9 km/h (1 Bft)
18.06.2010 19:24 22,6 C 16,8 C 1,0 UV-I 0,2 C 50 % 73 % 6 % 1015,8 hPa 0,0 l/m 8,4 km/h (2 Bft) 0 min 11,9 km/h (2 Bft)
18.06.2010 19:28 22,6 C 16,7 C 0,9 UV-I 0,1 C 50 % 72 % 3 % 1015,8 hPa 0,0 l/m 10,0 km/h (2 Bft) 0 min 28,0 km/h (4 Bft)
18.06.2010 19:32 22,6 C 16,6 C 0,9 UV-I 0,1 C 50 % 72 % 3 % 1015,8 hPa 0,0 l/m 10,8 km/h (2 Bft) 0 min 11,6 km/h (2 Bft)
18.06.2010 19:34 22,6 C 16,7 C 0,9 UV-I 0,0 C 50 % 72 % 0 % 1015,8 hPa 0,0 l/m 12,0 km/h (2 Bft) 0 min 13,5 km/h (3 Bft)
18.06.2010 19:36 22,6 C 16,6 C 0,9 UV-I 0,0 C 50 % 72 % 0 % 1015,8 hPa 0,0 l/m 12,0 km/h (2 Bft) 0 min 6,8 km/h (2 Bft)
18.06.2010 19:38 22,5 C 16,5 C 0,6 UV-I 0,0 C 50 % 72 % 0 % 1015,8 hPa 0,0 l/m 12,0 km/h (2 Bft) 0 min 7,4 km/h (2 Bft)
18.06.2010 19:42 22,5 C 16,4 C 0,7 UV-I 0,0 C 50 % 72 % 0 % 1015,8 hPa 0,0 l/m 10,0 km/h (2 Bft) 0 min 11,3 km/h (2 Bft)
18.06.2010 19:44 22,5 C 16,5 C 0,7 UV-I 0,0 C 50 % 72 % 0 % 1015,8 hPa 0,0 l/m 9,6 km/h (2 Bft) 0 min 10,0 km/h (2 Bft)
18.06.2010 19:46 22,4 C 16,4 C 0,7 UV-I 0,0 C 50 % 72 % 0 % 1015,8 hPa 0,0 l/m 8,8 km/h (2 Bft) 0 min 11,6 km/h (2 Bft)
18.06.2010 19:48 22,4 C 16,4 C 0,6 UV-I 0,0 C 50 % 72 % 0 % 1015,8 hPa 0,0 l/m 8,8 km/h (2 Bft) 0 min 10,6 km/h (2 Bft)
18.06.2010 19:50 22,4 C 16,3 C 0,6 UV-I 0,0 C 50 % 72 % 0 % 1015,8 hPa 0,0 l/m 8,8 km/h (2 Bft) 0 min 10,6 km/h (2 Bft)
18.06.2010 19:52 22,4 C 16,2 C 0,6 UV-I 0,0 C 50 % 71 % 0 % 1015,6 hPa 0,0 l/m 9,2 km/h (2 Bft) 0 min 9,0 km/h (2 Bft)
18.06.2010 19:56 22,4 C 16,3 C 0,6 UV-I 0,0 C 50 % 72 % 0 % 1015,6 hPa 0,0 l/m 9,2 km/h (2 Bft) 0 min 10,9 km/h (2 Bft)
18.06.2010 20:00 22,4 C 16,1 C 0,6 UV-I 0,0 C 50 % 70 % 0 % 1015,6 hPa 0,0 l/m 9,2 km/h (2 Bft) 0 min 25,1 km/h (4 Bft)
18.06.2010 20:02 22,4 C 16,0 C 0,6 UV-I 0,0 C 50 % 69 % 0 % 1015,6 hPa 0,0 l/m 9,6 km/h (2 Bft) 0 min 11,6 km/h (2 Bft)
18.06.2010 20:04 22,4 C 16,0 C 0,6 UV-I 0,0 C 50 % 69 % 0 % 1015,6 hPa 0,0 l/m 9,2 km/h (2 Bft) 0 min 9,7 km/h (2 Bft)
18.06.2010 20:12 22,2 C 15,9 C 0,6 UV-I 0,0 C 50 % 68 % 0 % 1015,4 hPa 0,0 l/m 8,0 km/h (2 Bft) 0 min 17,4 km/h (3 Bft)
18.06.2010 20:14 22,2 C 15,8 C 0,6 UV-I 0,0 C 50 % 68 % 0 % 1015,4 hPa 0,0 l/m 8,8 km/h (2 Bft) 0 min 25,1 km/h (4 Bft)
18.06.2010 20:16 22,2 C 15,9 C 0,6 UV-I 0,0 C 50 % 67 % 0 % 1015,4 hPa 0,0 l/m 9,6 km/h (2 Bft) 0 min 22,5 km/h (4 Bft)
18.06.2010 20:18 22,2 C 15,7 C 0,6 UV-I 0,0 C 50 % 67 % 0 % 1015,4 hPa 0,0 l/m 10,0 km/h (2 Bft) 0 min 3,5 km/h (1 Bft)
18.06.2010 20:20 22,1 C 15,7 C 0,6 UV-I 0,0 C 50 % 66 % 0 % 1015,4 hPa 0,0 l/m 11,2 km/h (2 Bft) 0 min 8,4 km/h (2 Bft)
18.06.2010 20:24 22,1 C 15,6 C 0,6 UV-I 0,0 C 50 % 65 % 0 % 1015,4 hPa 0,0 l/m 10,8 km/h (2 Bft) 0 min 14,2 km/h (3 Bft)
18.06.2010 20:26 22,1 C 15,6 C 0,6 UV-I 0,0 C 50 % 63 % 0 % 1015,4 hPa 0,0 l/m 10,0 km/h (2 Bft) 0 min 12,2 km/h (2 Bft)
18.06.2010 20:32 22,0 C 15,5 C 0,5 UV-I 0,0 C 49 % 63 % 0 % 1015,4 hPa 0,0 l/m 8,0 km/h (2 Bft) 0 min 9,3 km/h (2 Bft)
18.06.2010 20:36 22,0 C 15,5 C 0,5 UV-I 0,0 C 49 % 63 % 0 % 1015,4 hPa 0,0 l/m 7,6 km/h (2 Bft) 0 min 12,9 km/h (3 Bft)
18.06.2010 20:38 22,0 C 15,5 C 0,5 UV-I 0,0 C 49 % 63 % 0 % 1015,4 hPa 0,0 l/m 8,8 km/h (2 Bft) 0 min 11,3 km/h (2 Bft)
18.06.2010 20:44 21,9 C 15,3 C 0,4 UV-I 0,0 C 49 % 64 % 0 % 1015,4 hPa 0,0 l/m 10,0 km/h (2 Bft) 0 min 16,7 km/h (3 Bft)
18.06.2010 20:48 21,9 C 15,2 C 0,4 UV-I 0,0 C 49 % 65 % 0 % 1015,4 hPa 0,0 l/m 8,4 km/h (2 Bft) 0 min 5,1 km/h (1 Bft)
18.06.2010 20:53 21,8 C 15,2 C 0,4 UV-I 0,0 C 49 % 65 % 0 % 1015,1 hPa 0,0 l/m 7,2 km/h (2 Bft) 0 min 13,2 km/h (3 Bft)
18.06.2010 20:58 21,8 C 15,1 C 0,4 UV-I 0,0 C 49 % 65 % 0 % 1015,1 hPa 0,0 l/m 7,6 km/h (2 Bft) 0 min 10,6 km/h (2 Bft)
18.06.2010 21:03 21,8 C 15,0 C 0,4 UV-I 0,0 C 49 % 65 % 0 % 1015,1 hPa 0,0 l/m 9,6 km/h (2 Bft) 0 min 15,4 km/h (3 Bft)
18.06.2010 21:08 21,7 C 14,9 C 0,3 UV-I 0,0 C 49 % 66 % 0 % 1015,1 hPa 0,0 l/m 10,0 km/h (2 Bft) 0 min 8,0 km/h (2 Bft)
18.06.2010 21:13 21,7 C 14,8 C 0,3 UV-I 0,0 C 49 % 67 % 0 % 1015,2 hPa 0,0 l/m 10,8 km/h (2 Bft) 0 min 5,5 km/h (1 Bft)
18.06.2010 21:19 21,6 C 14,8 C 0,3 UV-I 0,0 C 49 % 67 % 0 % 1015,2 hPa 0,0 l/m 11,2 km/h (2 Bft) 0 min 10,9 km/h (2 Bft)
18.06.2010 21:22 21,6 C 14,8 C 0,2 UV-I 0,0 C 49 % 67 % 0 % 1015,2 hPa 0,0 l/m 10,8 km/h (2 Bft) 0 min 9,0 km/h (2 Bft)
18.06.2010 21:24 21,6 C 14,7 C 0,2 UV-I 0,0 C 49 % 67 % 0 % 1015,2 hPa 0,0 l/m 9,2 km/h (2 Bft) 0 min 10,9 km/h (2 Bft)
18.06.2010 21:26 21,6 C 14,6 C 0,2 UV-I 0,0 C 49 % 68 % 0 % 1015,2 hPa 0,0 l/m 9,2 km/h (2 Bft) 0 min 5,5 km/h (1 Bft)
18.06.2010 21:28 21,6 C 14,7 C 0,2 UV-I 0,0 C 49 % 68 % 0 % 1015,2 hPa 0,0 l/m 7,2 km/h (2 Bft) 0 min 0,0 km/h (0 Bft)
18.06.2010 21:30 21,6 C 14,6 C 0,2 UV-I 0,0 C 49 % 68 % 0 % 1015,2 hPa 0,0 l/m 7,2 km/h (2 Bft) 0 min 0,0 km/h (0 Bft)
18.06.2010 21:32 21,6 C 14,7 C 0,1 UV-I 0,0 C 49 % 68 % 0 % 1015,2 hPa 0,0 l/m 7,2 km/h (2 Bft) 0 min 18,0 km/h (3 Bft)
18.06.2010 21:34 21,6 C 14,5 C 0,1 UV-I 0,0 C 49 % 68 % 0 % 1015,2 hPa 0,0 l/m 7,6 km/h (2 Bft) 0 min 10,9 km/h (2 Bft)
18.06.2010 21:36 21,6 C 14,5 C 0,1 UV-I 0,0 C 49 % 68 % 0 % 1015,2 hPa 0,0 l/m 7,6 km/h (2 Bft) 0 min 18,0 km/h (3 Bft)
18.06.2010 21:38 21,6 C 14,5 C 0,2 UV-I 0,0 C 49 % 68 % 0 % 1015,2 hPa 0,0 l/m 8,8 km/h (2 Bft) 0 min 3,2 km/h (1 Bft)
18.06.2010 21:40 21,6 C 14,4 C 0,2 UV-I 0,0 C 49 % 68 % 0 % 1015,2 hPa 0,0 l/m 9,2 km/h (2 Bft) 0 min 17,1 km/h (3 Bft)
18.06.2010 21:42 21,5 C 14,4 C 0,2 UV-I 0,0 C 49 % 68 % 0 % 1015,2 hPa 0,0 l/m 9,6 km/h (2 Bft) 0 min 7,4 km/h (2 Bft)
18.06.2010 21:44 21,6 C 14,4 C 0,2 UV-I 0,0 C 49 % 68 % 0 % 1015,2 hPa 0,0 l/m 8,4 km/h (2 Bft) 0 min 0,0 km/h (0 Bft)
18.06.2010 21:46 21,5 C 14,4 C 0,2 UV-I 0,0 C 49 % 67 % 0 % 1015,2 hPa 0,0 l/m 8,8 km/h (2 Bft) 0 min 10,3 km/h (2 Bft)
18.06.2010 21:48 21,5 C 14,4 C 0,2 UV-I 0,0 C 49 % 68 % 0 % 1015,2 hPa 0,0 l/m 7,6 km/h (2 Bft) 0 min 6,4 km/h (2 Bft)
18.06.2010 21:50 21,5 C 14,3 C 0,2 UV-I 0,0 C 49 % 68 % 0 % 1015,2 hPa 0,0 l/m 7,6 km/h (2 Bft) 0 min 6,4 km/h (2 Bft)
18.06.2010 21:52 21,5 C 14,3 C 0,2 UV-I 0,0 C 49 % 68 % 0 % 1015,2 hPa 0,0 l/m 7,6 km/h (2 Bft) 0 min 7,4 km/h (2 Bft)
18.06.2010 21:54 21,4 C 14,3 C 0,2 UV-I 0,0 C 49 % 68 % 0 % 1015,2 hPa 0,0 l/m 8,8 km/h (2 Bft) 0 min 28,0 km/h (4 Bft)
18.06.2010 21:56 21,4 C 14,1 C 0,2 UV-I 0,0 C 49 % 67 % 0 % 1015,2 hPa 0,0 l/m 8,8 km/h (2 Bft) 0 min 6,4 km/h (2 Bft)
18.06.2010 21:58 21,4 C 14,1 C 0,1 UV-I 0,0 C 49 % 67 % 0 % 1015,2 hPa 0,0 l/m 8,8 km/h (2 Bft) 0 min 4,5 km/h (1 Bft)
18.06.2010 22:00 21,4 C 14,1 C 0,1 UV-I 0,0 C 49 % 67 % 0 % 1015,2 hPa 0,0 l/m 9,6 km/h (2 Bft) 0 min 11,9 km/h (2 Bft)
18.06.2010 22:02 21,4 C 14,1 C 0,1 UV-I 0,0 C 49 % 68 % 0 % 1015,2 hPa 0,0 l/m 9,2 km/h (2 Bft) 0 min 4,8 km/h (1 Bft)
18.06.2010 22:04 21,4 C 14,0 C 0,1 UV-I 0,0 C 49 % 68 % 0 % 1015,2 hPa 0,0 l/m 9,6 km/h (2 Bft) 0 min 16,1 km/h (3 Bft)
18.06.2010 22:06 21,4 C 14,0 C 0,1 UV-I 0,0 C 49 % 67 % 0 % 1015,2 hPa 0,0 l/m 8,8 km/h (2 Bft) 0 min 16,1 km/h (3 Bft)
18.06.2010 22:08 21,2 C 14,1 C 0,1 UV-I 0,0 C 49 % 67 % 0 % 1015,2 hPa 0,0 l/m 9,2 km/h (2 Bft) 0 min 33,5 km/h (5 Bft)
18.06.2010 22:10 21,2 C 14,0 C 0,1 UV-I 0,0 C 49 % 67 % 0 % 1015,2 hPa 0,0 l/m 9,2 km/h (2 Bft) 0 min 33,5 km/h (5 Bft)
18.06.2010 22:12 21,2 C 13,9 C 0,1 UV-I 0,0 C 48 % 66 % 0 % 1015,1 hPa 0,0 l/m 9,6 km/h (2 Bft) 0 min 13,5 km/h (3 Bft)
18.06.2010 22:14 21,2 C 13,8 C 0,1 UV-I 0,0 C 49 % 66 % 0 % 1015,1 hPa 0,0 l/m 9,6 km/h (2 Bft) 0 min 16,7 km/h (3 Bft)
18.06.2010 22:16 21,3 C 13,8 C 0,1 UV-I 0,0 C 48 % 66 % 0 % 1015,1 hPa 0,0 l/m 8,8 km/h (2 Bft) 0 min 5,5 km/h (1 Bft)
18.06.2010 22:18 21,2 C 13,8 C 0,1 UV-I 0,0 C 48 % 66 % 0 % 1015,1 hPa 0,0 l/m 9,6 km/h (2 Bft) 0 min 10,3 km/h (2 Bft)
18.06.2010 22:20 21,2 C 13,8 C 0,1 UV-I 0,0 C 48 % 65 % 0 % 1015,1 hPa 0,0 l/m 8,4 km/h (2 Bft) 0 min 7,4 km/h (2 Bft)
18.06.2010 22:22 21,2 C 13,7 C 0,1 UV-I 0,0 C 48 % 65 % 0 % 1015,1 hPa 0,0 l/m 10,0 km/h (2 Bft) 0 min 13,5 km/h (3 Bft)
18.06.2010 22:24 21,2 C 13,7 C 0,1 UV-I 0,0 C 48 % 65 % 0 % 1015,1 hPa 0,0 l/m 10,0 km/h (2 Bft) 0 min 7,7 km/h (2 Bft)
18.06.2010 22:26 21,2 C 13,7 C 0,1 UV-I 0,0 C 48 % 66 % 0 % 1015,1 hPa 0,0 l/m 9,6 km/h (2 Bft) 0 min 8,0 km/h (2 Bft)
18.06.2010 22:28 21,2 C 13,6 C 0,1 UV-I 0,0 C 48 % 66 % 0 % 1015,1 hPa 0,0 l/m 9,6 km/h (2 Bft) 0 min 5,5 km/h (1 Bft)
18.06.2010 22:30 21,2 C 13,7 C 0,1 UV-I 0,0 C 48 % 66 % 0 % 1015,1 hPa 0,0 l/m 9,6 km/h (2 Bft) 0 min 5,5 km/h (1 Bft)
18.06.2010 22:32 21,2 C 13,6 C 0,1 UV-I 0,0 C 48 % 66 % 0 % 1015,2 hPa 0,0 l/m 7,6 km/h (2 Bft) 0 min 13,5 km/h (3 Bft)
18.06.2010 22:34 21,2 C 13,5 C 0,1 UV-I 0,0 C 48 % 66 % 0 % 1015,2 hPa 0,0 l/m 8,0 km/h (2 Bft) 0 min 17,1 km/h (3 Bft)
18.06.2010 22:36 21,2 C 13,5 C 0,1 UV-I 0,0 C 48 % 66 % 0 % 1015,2 hPa 0,0 l/m 7,6 km/h (2 Bft) 0 min 0,0 km/h (0 Bft)
18.06.2010 22:38 21,1 C 13,4 C 0,1 UV-I 0,0 C 48 % 66 % 0 % 1015,2 hPa 0,0 l/m 8,8 km/h (2 Bft) 0 min 10,9 km/h (2 Bft)
18.06.2010 22:40 21,1 C 13,5 C 0,1 UV-I 0,0 C 48 % 66 % 0 % 1015,2 hPa 0,0 l/m 8,4 km/h (2 Bft) 0 min 9,0 km/h (2 Bft)
18.06.2010 22:42 21,1 C 13,4 C 0,1 UV-I 0,0 C 48 % 67 % 0 % 1015,2 hPa 0,0 l/m 9,6 km/h (2 Bft) 0 min 4,8 km/h (1 Bft)
18.06.2010 22:44 21,1 C 13,3 C 0,1 UV-I 0,0 C 48 % 67 % 0 % 1015,2 hPa 0,0 l/m 8,4 km/h (2 Bft) 0 min 9,7 km/h (2 Bft)
18.06.2010 22:46 21,1 C 13,3 C 0,1 UV-I 0,0 C 48 % 67 % 0 % 1015,2 hPa 0,0 l/m 8,0 km/h (2 Bft) 0 min 16,7 km/h (3 Bft)
18.06.2010 22:48 21,1 C 13,3 C 0,1 UV-I 0,0 C 48 % 67 % 0 % 1015,2 hPa 0,0 l/m 7,6 km/h (2 Bft) 0 min 3,2 km/h (1 Bft)
18.06.2010 22:50 21,1 C 13,3 C 0,1 UV-I 0,0 C 48 % 67 % 0 % 1015,2 hPa 0,0 l/m 7,6 km/h (2 Bft) 0 min 3,2 km/h (1 Bft)
18.06.2010 22:52 21,0 C 13,2 C 0,1 UV-I 0,0 C 48 % 67 % 0 % 1015,4 hPa 0,0 l/m 6,0 km/h (2 Bft) 0 min 3,9 km/h (1 Bft)
18.06.2010 22:54 21,0 C 13,2 C 0,1 UV-I 0,0 C 48 % 67 % 0 % 1015,4 hPa 0,0 l/m 5,2 km/h (1 Bft) 0 min 3,9 km/h (1 Bft)
18.06.2010 22:56 21,0 C 13,3 C 0,1 UV-I 0,0 C 48 % 67 % 0 % 1015,4 hPa 0,0 l/m 5,2 km/h (1 Bft) 0 min 7,4 km/h (2 Bft)
18.06.2010 22:58 21,0 C 13,2 C 0,1 UV-I 0,0 C 48 % 67 % 0 % 1015,4 hPa 0,0 l/m 5,2 km/h (1 Bft) 0 min 3,9 km/h (1 Bft)
18.06.2010 23:00 21,0 C 13,2 C 0,1 UV-I 0,0 C 49 % 67 % 0 % 1015,4 hPa 0,0 l/m 5,2 km/h (1 Bft) 0 min 16,7 km/h (3 Bft)
18.06.2010 23:02 21,0 C 13,1 C 0,1 UV-I 0,0 C 49 % 67 % 0 % 1015,4 hPa 0,0 l/m 5,2 km/h (1 Bft) 0 min 13,5 km/h (3 Bft)
18.06.2010 23:04 21,0 C 13,1 C 0,1 UV-I 0,0 C 49 % 68 % 0 % 1015,4 hPa 0,0 l/m 6,4 km/h (2 Bft) 0 min 8,4 km/h (2 Bft)
18.06.2010 23:06 21,0 C 13,1 C 0,1 UV-I 0,0 C 49 % 68 % 0 % 1015,4 hPa 0,0 l/m 7,2 km/h (2 Bft) 0 min 8,7 km/h (2 Bft)
18.06.2010 23:08 20,9 C 13,0 C 0,1 UV-I 0,0 C 49 % 68 % 0 % 1015,4 hPa 0,0 l/m 6,4 km/h (2 Bft) 0 min 8,7 km/h (2 Bft)
18.06.2010 23:10 20,9 C 13,0 C 0,1 UV-I 0,0 C 49 % 68 % 0 % 1015,4 hPa 0,0 l/m 6,4 km/h (2 Bft) 0 min 8,7 km/h (2 Bft)
18.06.2010 23:12 20,9 C 13,1 C 0,1 UV-I 0,0 C 49 % 68 % 0 % 1015,2 hPa 0,0 l/m 6,0 km/h (2 Bft) 0 min 3,9 km/h (1 Bft)
18.06.2010 23:14 20,9 C 13,1 C 0,1 UV-I 0,0 C 49 % 69 % 0 % 1015,2 hPa 0,0 l/m 6,0 km/h (2 Bft) 0 min 11,3 km/h (2 Bft)
18.06.2010 23:16 20,9 C 13,1 C 0,1 UV-I 0,0 C 49 % 69 % 0 % 1015,2 hPa 0,0 l/m 5,6 km/h (1 Bft) 0 min 6,8 km/h (2 Bft)
18.06.2010 23:18 20,9 C 12,9 C 0,1 UV-I 0,0 C 49 % 69 % 0 % 1015,2 hPa 0,0 l/m 6,0 km/h (2 Bft) 0 min 6,8 km/h (2 Bft)
18.06.2010 23:20 20,8 C 12,9 C 0,1 UV-I 0,0 C 49 % 69 % 0 % 1015,2 hPa 0,0 l/m 5,6 km/h (1 Bft) 0 min 6,1 km/h (2 Bft)
18.06.2010 23:22 20,8 C 12,9 C 0,1 UV-I 0,0 C 49 % 69 % 0 % 1015,2 hPa 0,0 l/m 6,0 km/h (2 Bft) 0 min 6,4 km/h (2 Bft)
18.06.2010 23:24 20,8 C 12,9 C 0,1 UV-I 0,0 C 49 % 69 % 0 % 1015,2 hPa 0,0 l/m 6,8 km/h (2 Bft) 0 min 7,7 km/h (2 Bft)
18.06.2010 23:26 20,8 C 12,8 C 0,1 UV-I 0,0 C 49 % 69 % 0 % 1015,2 hPa 0,0 l/m 7,2 km/h (2 Bft) 0 min 6,1 km/h (2 Bft)
18.06.2010 23:28 20,8 C 12,8 C 0,1 UV-I 0,0 C 49 % 69 % 0 % 1015,2 hPa 0,0 l/m 6,0 km/h (2 Bft) 0 min 6,4 km/h (2 Bft)
18.06.2010 23:30 20,8 C 12,9 C 0,1 UV-I 0,0 C 49 % 69 % 0 % 1015,2 hPa 0,0 l/m 6,0 km/h (2 Bft) 0 min 6,4 km/h (2 Bft)
18.06.2010 23:32 20,8 C 12,9 C 0,1 UV-I 0,0 C 49 % 70 % 0 % 1014,9 hPa 0,0 l/m 5,6 km/h (1 Bft) 0 min 3,5 km/h (1 Bft)
18.06.2010 23:34 20,8 C 12,8 C 0,1 UV-I 0,0 C 49 % 69 % 0 % 1014,9 hPa 0,0 l/m 5,6 km/h (1 Bft) 0 min 7,4 km/h (2 Bft)
18.06.2010 23:36 20,8 C 12,8 C 0,1 UV-I 0,0 C 49 % 69 % 0 % 1014,9 hPa 0,0 l/m 5,2 km/h (1 Bft) 0 min 13,2 km/h (3 Bft)
18.06.2010 23:38 20,8 C 12,7 C 0,1 UV-I 0,0 C 49 % 69 % 0 % 1014,9 hPa 0,0 l/m 6,0 km/h (2 Bft) 0 min 5,8 km/h (2 Bft)
18.06.2010 23:40 20,8 C 12,7 C 0,1 UV-I 0,0 C 49 % 69 % 0 % 1014,9 hPa 0,0 l/m 6,4 km/h (2 Bft) 0 min 6,1 km/h (2 Bft)
18.06.2010 23:42 20,8 C 12,7 C 0,1 UV-I 0,0 C 49 % 69 % 0 % 1014,9 hPa 0,0 l/m 7,2 km/h (2 Bft) 0 min 9,0 km/h (2 Bft)
18.06.2010 23:44 20,8 C 12,7 C 0,1 UV-I 0,0 C 49 % 69 % 0 % 1014,9 hPa 0,0 l/m 8,4 km/h (2 Bft) 0 min 8,0 km/h (2 Bft)
18.06.2010 23:46 20,8 C 12,7 C 0,1 UV-I 0,0 C 49 % 68 % 0 % 1014,9 hPa 0,0 l/m 9,2 km/h (2 Bft) 0 min 10,9 km/h (2 Bft)
18.06.2010 23:48 20,8 C 12,7 C 0,1 UV-I 0,0 C 49 % 68 % 0 % 1014,9 hPa 0,0 l/m 9,6 km/h (2 Bft) 0 min 11,3 km/h (2 Bft)
18.06.2010 23:50 20,8 C 12,7 C 0,1 UV-I 0,0 C 49 % 68 % 0 % 1014,9 hPa 0,0 l/m 9,6 km/h (2 Bft) 0 min 11,3 km/h (2 Bft)
18.06.2010 23:52 20,7 C 12,7 C 0,1 UV-I 0,0 C 49 % 68 % 0 % 1014,9 hPa 0,0 l/m 9,6 km/h (2 Bft) 0 min 5,5 km/h (1 Bft)
18.06.2010 23:54 20,7 C 12,7 C 0,1 UV-I 0,0 C 49 % 68 % 0 % 1014,9 hPa 0,0 l/m 8,8 km/h (2 Bft) 0 min 8,7 km/h (2 Bft)
18.06.2010 23:56 20,7 C 12,7 C 0,1 UV-I 0,0 C 49 % 68 % 0 % 1014,9 hPa 0,0 l/m 8,4 km/h (2 Bft) 0 min 4,8 km/h (1 Bft)
18.06.2010 23:58 20,7 C 12,7 C 0,1 UV-I 0,0 C 49 % 68 % 0 % 1014,9 hPa 0,0 l/m 7,2 km/h (2 Bft) 0 min 7,7 km/h (2 Bft)
_ Min-Zeit 23:52 05:56 02:32 00:00 00:00 14:56 00:00 23:32 - 02:58 - 00:02
Minimum _ 20,7 C 11,3 C 0,0 UV-I 0,0 C 45 % 59 % 0 % 1014,9 hPa - 0,8 km/h (0 Bft) - 0,0 km/h (0 Bft)
_ Max-Zeit 15:32 14:44 13:08 13:12 10:38 06:22 12:52 00:12 00:00 16:08 12:52 09:00
Maximum _ 23,6 C 19,1 C 12,9 UV-I 6,8 C 52 % 89 % 100 % 1018,4 hPa 0,0 l/m 18,1 km/h
W (3 Bft)
2 min 35,7 km/h
S (5 Bft)
Durchschnitt _ 22,0 C 14,7 C 2,1 UV-I 0,8 C 49 % 75 % 22 % 1017,0 hPa #0,0 l/m 8,8 km/h (2 Bft) #2:06 h 10,0 km/h (2 Bft)
© 2012 W. Hausmann